GFSMA_250_spd_027.txt.gz
Wind_Speed
91 92 90 91 93 97 100 97 100 100 97 94 93 87 81 79 83 83 81 80 75 67 64 65 68 61 59 57 57 52 53 57 58 58 55 52 53 58 58 58 56 51 81
91 95 95 100 101 100 100 101 97 95 90 90 84 82 79 79 80 79 78 75 76 76 74 70 70 68 63 59 57 58 60 59 61 63 62 59 57 59 64 62 62 58 56
91 99 101 98 95 98 97 93 92 90 87 83 83 82 82 84 86 87 85 84 83 81 78 74 72 69 67 66 60 61 63 65 64 67 68 66 65 63 66 69 65 64 63
94 94 99 100 97 90 88 84 83 82 82 83 86 86 85 83 83 82 77 74 71 69 67 64 61 60 62 63 64 67 67 66 69 70 70 72 74 73 71 72 76 71 68
92 90 92 88 84 82 78 77 80 82 83 83 82 82 80 78 77 74 72 72 71 70 70 69 69 71 71 70 70 71 72 71 74 74 73 75 79 80 78 78 78 80 75
84 83 78 74 72 74 76 77 78 79 78 78 78 78 77 74 74 72 71 72 73 75 76 77 77 78 78 80 82 84 83 81 78 79 80 80 81 84 84 83 84 83 84
66 64 67 69 70 71 72 73 73 74 78 82 79 78 77 76 76 78 80 82 84 86 89 90 91 91 92 92 93 93 94 94 93 90 88 86 86 89 90 89 90 89 88
60 59 59 61 64 68 71 73 74 75 78 79 77 77 76 78 78 80 84 89 93 97 100 102 105 106 105 105 105 104 105 106 106 105 102 98 98 96 94 94 95 97 94
54 57 62 65 68 71 74 75 76 77 77 77 77 76 76 79 82 87 93 96 103 108 111 116 118 117 115 111 108 108 107 108 109 110 113 110 104 107 106 101 98 100 102
57 61 64 67 71 75 78 79 79 79 79 79 81 86 89 90 91 92 98 102 106 110 114 119 118 116 109 104 99 95 95 96 99 102 105 108 110 105 107 113 109 103 101
61 67 71 76 79 83 82 79 80 80 82 86 90 94 98 100 103 102 99 98 100 104 106 109 109 108 103 102 101 98 94 92 93 96 99 100 100 105 105 107 115 114 110
68 73 77 82 86 86 81 80 83 86 90 96 99 103 104 105 102 98 95 97 101 104 107 107 107 105 100 96 94 91 89 88 88 88 92 97 98 97 100 103 109 117 119
75 79 85 88 86 81 82 86 91 96 99 104 108 110 108 105 103 101 101 101 101 101 98 98 100 98 92 85 83 80 79 77 79 80 82 85 88 88 88 96 107 110 116
80 85 91 88 84 83 86 92 98 102 106 110 110 109 108 107 110 110 108 106 95 87 91 92 92 86 84 80 76 72 71 72 72 72 75 77 82 85 86 89 98 108 111
86 91 90 86 86 88 93 100 103 106 110 109 107 106 108 106 108 112 113 107 96 90 91 92 89 85 78 71 66 65 65 65 65 65 67 68 73 77 82 86 91 99 107
90 92 89 88 88 92 97 104 110 111 109 107 105 108 110 108 109 111 109 105 100 94 86 87 84 77 73 67 63 62 63 62 63 63 63 64 65 68 73 79 85 92 99
94 91 90 90 94 99 103 109 111 111 105 106 108 110 112 112 108 107 105 100 97 93 85 79 74 71 67 65 63 61 61 61 60 61 61 62 63 66 68 71 77 85 92
91 91 92 95 99 103 108 111 110 106 104 106 109 109 110 108 101 101 99 94 90 85 77 71 71 67 64 61 58 57 56 55 57 58 58 59 61 64 66 69 72 78 85
91 92 94 100 104 108 110 108 101 102 105 107 106 109 103 98 94 91 89 86 82 76 71 66 65 62 60 56 54 52 52 52 53 54 54 56 59 62 65 67 70 75 79
94 96 102 106 107 108 105 104 103 105 106 105 98 99 96 93 88 85 83 78 73 69 66 63 59 58 55 51 49 49 49 48 50 49 50 52 54 58 62 65 66 69 75
99 104 107 109 106 103 104 104 105 105 104 102 98 93 90 88 82 79 75 70 67 65 62 59 57 54 52 51 48 45 45 46 45 45 48 47 50 53 57 62 64 66 70
107 109 109 106 104 102 104 106 105 102 96 97 95 91 86 81 77 73 68 66 63 61 58 55 53 51 49 48 45 42 43 43 45 39 47 44 47 50 52 57 61 64 66
111 110 107 104 102 105 106 108 105 100 97 95 91 87 82 78 71 68 65 63 61 57 54 53 52 49 49 46 43 40 39 39 40 38 43 41 44 47 47 52 58 63 63
110 109 106 105 106 105 106 101 100 98 97 92 85 80 78 73 69 66 63 60 56 54 50 49 49 47 46 44 44 39 37 35 37 38 38 36 41 42 45 49 55 52 55
108 107 108 110 110 105 102 101 99 93 89 87 80 77 75 70 66 63 60 58 54 50 47 47 46 46 44 42 41 38 37 36 33 35 36 35 37 37 40 44 46 47 53
110 110 111 112 107 104 99 95 91 85 82 80 77 72 70 65 62 60 57 55 51 48 45 44 44 44 41 39 38 37 37 34 32 33 33 33 33 33 36 38 41 44 51

GFSMA_250_spd_030.txt.gz
Wind_Speed
70 76 79 86 87 88 94 94 98 94 94 86 87 86 86 85 86 90 88 85 81 81 80 78 77 78 77 74 70 69 66 65 61 60 57 58 59 63 61 59 62 64 63
79 80 84 86 91 94 93 87 83 88 82 88 88 86 88 88 88 88 86 86 84 82 79 75 75 76 77 78 78 75 73 70 68 64 61 62 63 66 67 64 65 68 68
88 90 92 90 91 92 90 87 86 89 85 85 83 85 85 87 88 89 88 85 80 77 76 74 71 68 70 71 70 73 74 72 72 70 65 67 70 69 71 70 67 72 73
87 84 87 93 88 85 84 84 85 82 77 79 83 85 84 83 83 83 82 81 79 79 76 71 71 70 69 70 70 69 69 68 71 72 73 73 74 76 77 77 75 72 78
83 83 84 84 84 83 82 76 72 74 76 76 77 78 80 80 82 83 82 81 78 77 77 75 75 75 74 74 75 77 77 74 71 70 71 77 78 82 85 85 83 79 78
79 80 81 80 78 72 69 70 72 73 75 78 79 80 81 80 81 83 83 82 81 80 79 79 79 79 80 81 84 85 86 87 86 81 78 77 80 84 87 91 90 87 85
78 77 75 72 69 68 70 70 71 73 78 81 84 86 84 81 81 81 82 84 86 88 89 91 91 91 92 91 93 95 95 97 98 97 95 87 86 85 89 91 95 95 92
72 71 68 68 67 67 70 71 73 78 82 87 88 82 77 79 82 85 89 91 94 98 100 101 102 100 100 102 105 106 106 105 105 105 106 105 99 95 94 93 94 97 101
66 67 66 65 65 68 73 75 79 84 88 90 86 81 80 83 87 93 96 99 104 107 108 106 103 102 103 103 103 103 104 104 102 108 116 116 113 108 104 100 100 97 97
64 64 65 67 69 74 77 80 86 91 95 92 87 87 89 91 94 98 101 105 104 103 103 101 104 105 104 100 98 97 95 93 90 94 99 104 110 114 112 110 105 105 102
66 70 73 74 75 77 80 85 90 94 93 90 90 90 94 99 104 108 110 110 106 103 104 106 108 106 102 97 95 95 95 91 87 88 90 93 95 99 105 109 111 110 112
67 68 71 74 77 79 84 89 95 96 93 91 92 95 99 104 109 112 112 107 105 105 106 106 107 104 98 90 86 84 83 84 80 80 81 81 86 95 98 100 105 111 111
69 69 72 75 79 84 88 93 96 93 92 93 96 102 107 112 113 112 109 107 106 105 108 107 106 103 96 86 81 75 72 72 71 71 73 74 77 82 87 95 99 104 108
66 68 74 80 85 89 92 98 95 93 95 99 105 110 112 112 111 110 110 110 111 107 105 108 109 104 98 88 81 76 71 68 66 66 67 71 75 78 81 85 91 99 104
71 75 81 85 89 93 98 95 94 97 101 106 110 110 107 107 109 110 113 112 114 105 101 102 98 95 91 85 76 71 68 64 62 61 61 63 67 72 77 81 87 92 98
78 83 87 90 94 99 96 96 99 104 108 109 106 103 106 106 108 111 112 111 110 107 101 93 95 92 86 81 72 69 64 60 58 57 58 59 61 65 71 76 82 89 93
85 88 91 96 99 97 98 101 106 109 109 106 104 105 106 106 109 111 109 106 102 99 94 88 88 84 79 73 69 64 60 57 55 55 55 57 58 61 65 72 77 82 89
89 92 96 98 97 99 104 107 108 106 106 107 104 106 108 108 110 109 106 101 97 92 87 82 82 77 73 67 62 59 56 54 54 53 53 55 57 60 63 66 71 76 83
94 95 94 95 98 105 109 107 104 103 103 104 105 106 108 108 106 103 98 94 90 85 80 76 74 71 67 61 59 56 53 52 53 50 51 52 54 56 59 62 65 71 78
94 92 94 98 105 107 105 102 102 103 104 105 106 107 105 104 100 96 91 87 82 79 75 71 67 64 60 58 55 54 51 50 48 48 50 50 51 52 55 59 62 65 71
94 95 99 104 106 104 102 103 105 105 105 106 106 104 101 99 96 91 87 82 76 71 69 65 62 60 57 53 53 50 48 50 45 46 48 43 45 47 49 53 57 61 67
96 100 105 108 105 103 102 103 106 108 108 104 100 99 96 94 89 85 80 76 70 66 65 61 58 57 53 51 50 48 46 44 44 40 46 38 42 44 45 50 52 57 62
101 104 108 106 104 103 106 108 109 109 104 100 97 95 91 87 83 78 74 70 66 63 61 60 57 51 50 48 48 45 44 41 38 42 38 34 41 41 42 45 47 52 58
110 113 114 111 109 110 110 111 110 105 99 96 93 88 85 80 76 74 70 67 63 59 56 53 53 51 48 46 44 43 43 39 35 37 36 31 39 37 38 41 44 48 53
113 117 115 111 111 113 112 111 106 103 97 91 86 81 78 75 73 70 66 62 59 55 53 51 49 48 46 43 42 41 39 39 35 33 34 32 33 33 36 37 41 44 48
118 118 115 113 113 114 112 108 103 97 89 84 79 77 73 70 67 64 61 60 57 53 50 47 46 45 42 39 39 39 37 36 36 33 33 31 31 29 33 32 36 40 41

GFSMA_250_spd_033.txt.gz
Wind_Speed
59 68 68 72 72 78 85 85 88 91 94 96 95 94 87 85 82 78 75 75 78 80 82 81 79 79 76 71 69 67 64 66 67 66 65 65 63 59 57 57 59 63 61
68 68 75 78 79 83 84 89 92 86 82 82 84 81 73 70 69 71 73 75 76 78 80 78 77 78 78 77 74 69 65 62 62 64 65 65 66 66 62 62 60 66 67
74 78 82 85 89 88 90 82 79 78 76 80 76 75 75 71 72 74 76 79 81 82 81 79 76 75 73 72 73 73 70 68 66 61 63 68 66 68 69 66 67 67 72
78 85 88 90 89 87 81 81 81 78 77 72 75 71 74 74 76 79 83 86 87 87 81 75 72 71 71 72 73 75 76 77 76 72 66 66 71 70 71 73 71 73 75
83 81 78 76 76 82 82 76 77 73 72 72 72 76 79 81 83 85 87 90 89 85 76 72 72 72 73 75 77 79 82 83 83 84 82 76 72 75 74 74 77 78 78
69 70 73 79 79 76 72 72 72 71 73 74 77 81 84 86 89 92 95 95 89 84 82 82 82 83 85 85 86 87 87 89 91 91 91 92 87 80 80 79 77 82 84
71 73 76 74 75 71 70 71 72 74 75 78 83 87 91 92 94 97 98 97 92 88 89 89 91 94 94 94 96 95 92 91 94 98 100 101 100 97 85 85 81 78 86
71 71 73 72 70 71 72 73 77 79 84 86 89 89 90 95 98 102 102 96 93 92 94 97 100 102 103 102 98 93 90 90 93 96 100 105 108 106 101 91 89 86 81
64 66 67 69 71 74 77 79 82 84 84 84 85 90 93 95 101 102 99 97 99 101 106 109 111 110 106 100 96 94 90 87 89 89 90 93 97 102 105 106 99 95 93
62 66 70 73 77 78 79 80 80 77 80 85 89 93 97 101 99 94 97 100 105 108 111 112 109 108 106 104 105 102 95 88 86 84 87 90 92 95 95 95 106 110 104
66 68 69 66 68 73 75 74 78 81 85 88 92 96 100 97 97 100 102 107 111 111 109 109 110 109 105 104 104 103 96 88 85 80 79 81 85 92 97 94 98 103 111
68 66 68 69 68 68 73 78 81 86 90 92 96 97 95 97 102 108 109 110 109 107 108 111 112 111 111 109 106 99 89 83 76 70 68 65 72 84 92 95 95 98 102
67 69 69 68 70 76 80 83 87 90 92 95 93 95 99 106 108 110 109 105 105 105 107 110 111 113 110 107 99 93 86 78 73 70 66 62 65 71 80 85 86 93 101
69 69 70 72 76 81 83 88 91 92 90 92 96 101 107 108 108 108 107 109 110 109 109 109 110 110 107 101 96 89 83 78 72 68 62 59 61 65 71 79 83 84 94
69 71 72 76 82 83 87 93 91 89 93 97 102 106 105 106 107 108 110 111 113 112 112 108 106 103 100 98 93 86 80 73 67 62 56 56 57 62 65 73 80 84 87
70 74 78 82 85 86 94 94 91 93 98 103 106 104 104 105 107 109 113 115 114 112 105 101 98 96 93 89 86 81 76 68 63 57 55 52 55 55 58 64 72 80 86
75 80 83 85 87 94 96 92 95 99 101 106 105 105 105 107 109 111 114 114 109 102 97 97 92 89 83 78 76 75 69 64 59 55 52 52 54 54 55 60 66 71 79
80 84 87 88 93 96 93 97 100 102 106 107 105 105 107 109 110 112 109 106 102 98 92 88 84 80 75 72 69 68 65 59 56 52 50 52 52 52 53 56 60 66 73
86 88 90 94 96 93 97 101 102 108 106 102 103 105 107 108 108 105 100 96 93 88 84 79 76 73 70 67 65 61 59 54 51 49 51 51 48 50 51 53 58 62 69
88 90 93 97 94 97 101 102 108 108 105 104 106 108 109 107 103 98 94 88 84 81 78 74 71 68 65 62 59 57 54 51 47 48 49 46 48 49 49 52 54 58 63
89 92 96 95 99 102 104 107 109 108 108 109 110 109 105 103 98 92 87 82 79 78 75 72 68 64 60 58 55 52 51 49 43 47 47 41 49 48 47 50 52 54 59
92 97 96 99 102 104 108 111 112 110 111 112 110 107 105 101 94 86 82 78 75 72 69 66 63 59 55 53 52 50 49 46 43 45 45 38 46 46 46 45 48 50 55
96 96 98 104 104 110 113 114 113 113 113 113 111 108 102 96 89 84 79 75 71 68 65 63 62 58 55 50 49 48 45 44 41 43 45 39 40 43 42 43 45 47 51
98 98 104 105 108 113 116 116 115 114 115 113 110 105 98 91 85 81 76 72 68 65 62 59 58 56 52 50 47 44 42 40 39 40 45 37 35 37 38 41 42 43 47
99 103 106 109 112 117 118 116 117 117 114 111 107 99 91 86 81 77 73 69 66 62 59 55 53 51 50 47 45 42 40 39 38 37 40 35 30 32 34 38 39 41 44
104 107 109 112 116 117 120 119 117 115 111 107 101 91 86 80 77 73 68 64 61 58 55 52 49 48 47 45 41 40 39 37 39 35 33 30 30 28 29 36 35 38 41

GFSMA_250_spd_036.txt.gz
Wind_Speed
45 50 53 55 61 65 68 73 77 86 87 92 92 91 86 86 83 75 71 64 66 67 67 69 73 79 82 83 83 80 74 68 62 58 56 55 57 56 55 56 59 57 56
64 64 71 68 68 72 79 82 85 85 82 83 83 80 77 72 71 70 67 70 72 72 76 76 78 81 84 85 82 76 70 65 60 57 56 56 56 56 56 54 55 62 61
70 65 67 74 77 79 83 85 82 83 85 85 77 76 70 69 70 70 73 78 76 78 81 83 85 85 85 84 82 77 73 73 71 66 63 62 64 61 59 59 57 57 65
62 70 71 74 78 78 78 79 76 75 78 74 72 70 72 73 73 76 79 81 84 87 87 89 88 88 89 88 82 77 77 78 78 78 76 74 71 68 68 67 64 62 61
71 74 77 80 79 76 76 73 75 73 73 72 74 77 77 78 81 83 87 89 89 89 88 89 92 93 93 89 82 77 77 80 82 84 86 86 85 81 78 75 74 70 67
73 73 73 73 71 71 72 71 69 70 73 77 79 80 81 83 86 86 86 87 89 92 93 95 97 97 93 89 85 84 83 84 86 90 92 93 93 92 89 86 82 79 76
68 66 66 65 67 69 67 67 70 75 77 77 78 80 82 81 82 83 87 89 93 95 98 99 99 98 94 93 93 93 94 95 94 94 94 94 93 94 94 91 91 90 85
61 64 65 65 65 64 66 70 73 72 74 78 81 78 77 82 85 89 91 94 97 98 99 98 101 102 103 104 105 102 100 94 91 89 87 88 88 89 89 90 91 92 96
58 60 61 60 62 66 70 73 75 79 81 78 77 81 83 85 89 92 94 95 97 99 101 104 108 110 111 111 107 103 100 96 93 87 82 80 81 85 88 90 90 91 93
53 56 60 63 66 68 70 74 77 77 75 79 83 87 87 92 94 91 91 94 98 103 108 111 114 114 113 111 109 106 102 101 94 89 83 81 78 80 83 88 93 97 97
56 60 63 65 68 69 72 73 75 76 77 81 85 87 90 96 96 94 93 98 103 109 113 114 114 113 111 109 107 107 105 102 98 95 89 81 77 78 78 84 94 99 96
61 63 65 67 71 72 71 73 74 78 82 84 87 91 97 96 94 98 102 106 108 110 111 111 111 110 110 110 107 103 99 95 89 85 81 75 73 73 75 78 85 92 98
65 64 67 70 71 71 73 76 80 83 82 84 90 97 96 96 100 106 109 109 106 105 106 108 112 111 110 106 102 96 91 87 82 78 75 73 71 69 70 72 76 83 91
65 66 70 71 73 75 79 83 83 83 84 89 96 95 96 101 106 108 109 110 108 108 108 112 113 111 107 103 99 94 88 83 78 74 70 68 64 63 64 67 71 76 83
66 70 72 72 75 80 83 83 85 86 90 96 95 96 102 106 107 109 109 109 111 110 109 109 105 103 101 98 94 90 84 79 73 67 62 61 60 60 60 63 68 71 77
69 73 72 76 79 84 85 86 87 91 96 96 97 103 104 104 108 109 109 111 112 110 106 103 98 92 89 85 82 80 76 72 67 62 57 57 56 56 57 58 62 67 71
72 72 75 80 84 85 88 89 92 95 96 97 103 105 105 108 110 110 111 112 110 107 100 95 91 86 81 76 74 73 69 65 61 58 55 54 54 52 51 53 58 64 67
74 76 80 84 86 89 91 93 95 98 98 103 106 106 109 111 112 112 111 109 104 96 91 86 85 82 80 75 71 68 66 61 57 54 53 53 51 48 48 50 52 57 63
76 80 85 88 91 94 97 98 101 100 103 107 106 109 111 113 112 112 110 103 97 93 87 82 81 78 75 69 66 62 60 57 51 51 51 50 47 48 49 49 50 54 59
80 83 87 91 96 97 98 102 100 103 108 107 110 113 115 114 114 110 104 101 96 89 83 80 76 72 68 65 62 59 58 52 48 46 49 45 47 47 46 47 49 53 56
85 89 92 96 98 99 101 100 104 108 107 110 113 116 115 115 110 108 104 98 90 84 80 76 72 69 65 62 58 55 55 52 46 45 44 39 47 42 44 45 47 48 51
88 92 97 96 98 101 100 103 107 108 110 113 116 117 115 113 111 106 99 91 85 79 75 72 69 65 62 59 55 51 50 49 46 44 43 36 45 40 44 43 45 47 50
95 96 98 100 103 103 105 109 111 111 114 117 118 116 116 114 108 102 93 87 82 74 71 67 64 61 59 55 52 48 45 45 43 43 42 34 41 36 40 44 45 46 47
96 101 102 103 104 105 109 114 114 114 116 117 117 118 116 110 103 95 90 84 77 70 67 62 60 58 57 55 52 49 45 41 38 40 45 34 36 35 38 44 43 43 44
100 101 103 105 105 110 113 117 116 116 117 118 119 117 113 105 97 90 84 79 73 67 63 59 58 57 55 53 51 48 43 41 37 36 42 36 35 37 34 40 43 42 42
101 102 106 105 109 113 117 117 118 118 118 117 118 114 107 98 91 86 79 76 69 64 60 58 56 56 53 51 49 47 43 38 37 32 39 34 36 37 30 34 41 39 41

GFSMA_250_spd_042.txt.gz
Wind_Speed
61 63 60 63 62 61 61 59 58 58 64 68 71 76 78 78 78 70 70 66 63 62 64 64 65 68 70 71 71 71 71 70 71 71 72 74 74 72 71 70 68 67 60
60 59 61 62 60 57 60 60 62 66 70 74 76 79 81 80 69 63 65 65 65 66 68 69 70 70 70 70 72 74 76 77 78 79 79 80 80 79 77 76 75 71 65
57 58 59 55 57 60 62 64 67 70 70 69 69 67 66 63 61 64 66 67 68 71 73 74 74 72 72 74 78 80 82 83 84 85 86 86 85 83 81 79 75 73 68
58 58 55 59 62 65 67 71 73 72 70 71 69 63 63 63 62 65 69 71 74 75 76 75 74 76 78 79 80 82 85 87 89 91 90 88 87 85 83 81 79 74 70
65 61 62 68 69 70 74 74 73 68 71 65 62 61 62 63 64 68 72 75 76 75 75 77 80 82 84 84 85 85 87 90 90 89 88 88 89 89 90 89 87 83 79
62 65 66 68 72 73 71 70 69 67 64 61 60 62 62 65 69 73 76 75 74 76 80 84 84 84 87 87 88 91 93 92 91 92 95 97 98 98 97 95 94 94 89
68 64 70 74 75 71 71 67 64 61 59 60 62 63 64 70 75 76 76 76 78 81 85 87 88 88 88 90 94 94 92 94 97 100 103 103 102 102 100 98 95 93 92
67 69 70 69 69 64 62 58 56 60 61 63 65 67 70 71 74 75 80 81 84 87 88 87 89 91 94 98 94 93 97 103 106 108 109 108 107 105 101 96 93 92 90
63 61 63 65 58 56 56 58 62 63 64 68 70 74 75 79 78 75 79 86 88 89 89 90 93 95 96 96 99 103 103 109 110 111 111 111 109 106 101 96 93 92 91
54 54 55 53 53 55 57 63 66 67 70 72 75 77 80 82 83 85 83 86 89 91 91 93 97 94 95 101 104 106 109 110 111 111 111 110 107 104 101 98 95 91 89
52 51 50 52 55 59 62 66 69 71 73 76 76 75 78 82 86 89 91 93 91 90 92 95 96 99 102 105 109 108 106 107 109 109 108 104 102 98 94 91 89 87 87
47 49 52 58 61 64 68 70 70 74 78 79 77 77 81 84 87 89 91 94 94 95 96 97 101 104 106 109 108 109 106 105 105 105 102 98 95 92 86 83 82 81 82
52 56 61 64 66 69 70 70 76 78 79 79 77 81 85 88 92 93 94 96 97 101 99 99 104 109 111 110 109 107 106 104 104 101 96 92 88 85 82 79 75 73 73
56 61 65 67 68 70 72 76 81 83 79 80 81 85 89 92 94 96 96 95 99 101 103 107 108 109 110 108 108 106 103 101 98 93 87 83 81 78 75 74 73 72 67
61 63 65 66 69 73 76 83 86 83 84 84 85 90 93 96 98 97 98 99 103 101 107 112 114 111 110 107 102 102 99 95 88 84 79 75 71 69 68 68 68 68 68
62 64 66 67 71 77 83 86 85 86 88 89 90 94 97 98 98 99 101 105 108 108 110 116 117 114 110 105 100 96 91 85 81 77 73 68 65 62 62 62 63 64 65
63 65 66 69 77 82 84 85 86 88 92 94 95 98 101 101 101 103 105 110 112 113 114 119 117 114 106 106 98 89 81 77 74 71 69 64 59 57 56 57 58 59 60
65 68 70 77 81 84 84 86 89 92 96 97 99 100 102 103 105 109 112 114 115 117 120 120 118 114 107 100 91 83 78 73 69 66 64 61 56 53 52 53 54 55 56
68 72 77 82 82 84 87 89 93 96 97 100 101 102 104 107 110 113 114 116 118 121 123 119 116 112 105 96 87 80 76 71 65 61 58 56 55 52 49 50 50 51 52
73 77 79 83 85 88 90 92 96 99 99 101 104 106 109 111 113 115 117 119 122 125 123 118 112 108 103 93 83 77 74 68 61 58 56 53 54 51 48 48 47 49 50
77 79 82 85 87 91 93 95 98 100 102 105 108 110 111 113 115 117 120 123 126 125 120 115 109 105 97 88 79 75 70 64 59 56 55 46 53 51 46 46 46 46 47
79 82 85 89 91 92 95 98 99 100 104 106 108 110 113 115 118 119 122 127 127 123 117 111 104 99 90 83 76 71 66 61 58 52 53 45 46 47 46 43 43 43 44
82 85 87 89 92 95 96 98 100 102 103 106 109 112 115 119 119 123 126 126 123 119 114 105 100 93 85 78 73 68 63 59 56 51 50 48 43 42 43 42 42 41 41
84 86 89 92 95 97 98 99 101 102 104 108 111 114 118 120 124 126 127 123 119 113 106 99 93 86 80 74 69 63 59 58 54 50 47 49 44 37 40 41 40 40 38
84 88 90 91 93 97 98 100 102 103 106 111 113 116 120 124 127 125 123 119 113 109 97 90 86 80 76 70 65 60 58 57 55 49 45 45 45 38 34 39 41 38 37
83 86 91 93 96 99 101 104 106 107 108 110 114 119 122 125 125 121 118 112 107 102 92 82 82 75 69 65 62 58 57 55 53 50 44 41 40 40 30 36 39 39 35

GFSMA_250_spd_045.txt.gz
Wind_Speed
55 54 53 60 65 65 67 59 59 56 62 61 63 66 70 71 75 72 75 75 72 70 67 61 63 65 68 70 71 71 70 70 70 70 70 71 72 72 71 71 71 71 70
59 60 62 64 60 61 58 59 59 60 61 65 68 71 75 76 77 75 74 69 65 63 64 64 65 68 73 73 73 71 72 75 77 78 77 77 76 77 77 75 75 75 73
52 55 60 63 65 60 61 59 65 64 69 73 73 76 77 73 72 68 68 64 62 65 66 68 71 71 71 71 72 75 77 80 81 82 82 81 82 83 83 82 79 76 72
47 55 58 60 65 69 66 69 75 72 73 73 77 76 71 68 64 65 65 65 66 65 68 74 75 74 74 74 76 79 83 83 83 83 83 84 86 87 86 84 82 79 77
58 60 65 65 70 73 77 77 74 75 77 77 73 66 62 60 62 64 66 67 71 74 74 76 79 79 81 81 82 84 84 83 83 84 86 88 87 85 86 88 90 90 89
58 61 63 66 65 65 73 75 77 75 76 72 65 60 59 62 62 64 66 71 74 78 82 84 82 82 84 86 86 87 86 85 86 86 85 85 87 90 92 94 95 96 96
57 58 63 67 75 78 82 73 70 68 66 63 62 63 60 62 66 71 73 76 77 79 81 84 87 88 85 86 86 86 88 90 89 87 89 91 93 96 98 99 100 101 100
64 71 77 79 79 79 77 71 67 61 61 62 62 63 67 67 61 69 80 81 81 83 84 85 88 90 90 91 88 83 86 89 90 92 94 97 100 101 102 102 103 103 102
62 64 67 69 70 70 66 65 62 60 60 64 67 69 73 72 76 76 74 81 82 84 87 90 90 90 90 90 91 90 89 91 93 96 100 103 103 103 104 105 105 105 103
69 68 67 66 63 61 61 60 61 62 66 69 72 75 76 77 81 86 85 81 80 85 89 92 95 95 93 92 92 94 94 96 98 101 104 102 102 102 103 105 107 106 103
63 63 62 60 59 60 59 60 62 67 71 76 77 77 77 81 88 91 91 92 90 89 88 90 93 94 95 96 97 96 100 100 101 106 103 101 100 100 102 104 103 100 96
61 57 58 59 55 57 62 63 67 73 75 77 77 81 83 88 92 89 88 90 93 96 98 98 96 95 99 100 102 102 104 106 104 102 100 100 100 101 100 99 94 88 83
58 58 57 54 57 64 68 71 73 77 78 79 82 85 90 92 91 91 94 96 98 100 102 103 103 99 101 104 107 107 106 109 106 104 103 101 98 97 94 89 85 80 76
53 56 56 59 64 70 75 76 76 79 81 83 86 92 96 92 91 93 96 100 103 104 106 106 109 108 106 106 108 110 112 108 104 102 100 100 96 91 85 81 77 75 71
53 56 59 67 71 72 72 76 79 82 85 86 92 97 93 93 94 99 102 105 106 106 107 110 113 114 114 113 111 113 111 106 104 103 98 92 88 84 80 75 71 69 66
56 62 66 67 68 73 77 80 82 86 89 92 98 94 95 96 98 101 103 105 108 110 109 112 114 117 118 119 118 114 108 103 102 97 91 86 84 78 72 68 65 63 64
63 66 69 69 72 76 80 84 86 88 94 95 96 97 98 100 103 105 107 109 111 111 112 114 118 120 120 121 118 110 107 104 98 91 84 79 77 74 66 62 58 58 58
65 67 67 70 75 80 84 86 89 92 96 94 95 98 102 105 107 109 111 112 113 115 117 117 120 123 124 123 115 107 104 102 95 84 79 76 72 69 63 58 54 54 55
72 70 71 74 80 82 86 88 92 93 95 98 100 102 105 106 108 111 112 113 116 118 119 120 120 125 123 118 110 105 102 95 87 80 74 72 69 65 60 56 52 52 53
67 71 74 78 81 84 88 89 90 91 95 99 101 102 105 107 111 113 115 118 119 119 120 122 124 124 120 113 108 103 95 88 81 77 72 67 63 61 58 55 50 50 49
71 74 77 81 83 86 87 90 92 93 95 96 100 104 106 109 111 114 116 117 119 121 125 128 126 122 116 112 108 98 87 81 79 71 67 62 58 56 55 53 51 46 46
73 76 80 81 82 85 88 91 92 90 93 97 101 105 109 111 113 113 114 118 122 125 128 129 125 121 116 113 103 92 83 78 74 70 62 60 56 53 51 50 52 48 45
71 72 76 80 84 87 89 91 89 92 97 101 106 109 111 114 115 117 119 118 123 127 127 126 122 119 113 107 94 85 79 72 69 64 59 58 54 52 50 48 52 48 44
70 74 78 81 85 87 86 89 93 98 103 107 110 112 114 115 119 122 123 124 123 122 123 119 115 111 108 97 89 79 75 69 65 60 56 57 52 50 49 45 48 48 42
73 75 79 81 84 87 92 96 100 104 107 109 110 111 114 117 119 121 124 123 122 123 123 118 110 103 96 90 86 75 70 64 63 61 55 54 51 50 47 42 45 45 41
73 75 79 84 89 94 99 104 107 109 108 107 107 111 114 117 118 119 122 125 122 119 117 113 106 95 87 82 78 73 67 62 60 60 54 53 48 45 48 38 43 42 40

GFSMA_250_spd_048.txt.gz
Wind_Speed
42 45 51 49 51 55 53 55 57 61 70 63 64 64 72 64 74 76 74 75 79 81 79 72 67 64 63 63 65 66 66 66 67 65 66 67 68 69 70 71 70 69 68
52 54 53 50 53 56 58 59 60 61 62 64 67 72 72 75 78 73 80 80 81 79 65 63 64 63 65 66 67 69 71 72 71 72 72 74 74 75 74 73 72 71 71
55 54 57 58 58 58 58 59 60 62 66 69 71 75 79 78 80 83 79 74 71 67 68 67 63 62 65 69 71 72 74 75 77 78 79 79 79 80 79 78 77 76 76
59 60 60 61 58 53 56 61 65 68 69 72 77 74 78 80 82 75 72 70 64 63 65 67 67 70 73 73 74 76 78 79 80 81 82 81 81 81 80 81 81 80 77
54 52 53 51 56 62 66 65 68 72 74 78 79 84 85 79 76 70 67 65 67 67 64 67 71 73 75 78 79 81 82 82 83 84 83 82 81 82 82 81 80 79 80
50 51 56 61 58 57 62 66 69 74 75 85 84 80 79 76 72 63 63 65 70 74 73 73 75 79 81 81 83 84 85 86 87 86 84 82 83 83 83 82 82 83 85
56 57 58 62 66 68 67 70 74 80 79 79 77 77 72 66 64 65 68 71 74 74 78 84 87 88 85 83 84 84 86 89 89 88 86 86 86 86 87 86 86 86 89
56 58 62 65 63 69 76 80 80 80 81 79 74 72 70 66 63 65 69 72 75 80 80 86 90 91 90 87 84 83 86 90 92 91 89 90 90 90 90 89 89 92 96
66 67 70 69 73 75 78 79 76 75 74 73 70 67 66 66 67 70 72 72 77 79 86 93 93 90 90 92 92 90 92 94 93 94 95 95 95 94 94 95 97 99 96
56 59 61 66 68 70 70 72 75 74 71 67 66 67 69 71 74 78 78 80 80 85 90 93 93 94 95 92 92 93 96 99 99 97 97 98 97 96 98 100 99 95 95
67 70 70 71 68 71 71 73 72 72 70 67 67 71 74 77 81 83 86 92 92 93 98 96 93 92 93 96 97 98 100 102 102 100 101 100 100 101 100 96 93 95 96
63 62 64 67 65 67 71 71 70 68 68 72 76 79 79 84 86 87 89 92 96 103 103 102 100 100 100 101 102 104 106 104 106 104 103 104 104 101 95 92 94 95 96
48 56 62 73 73 72 72 72 70 70 73 78 83 83 86 88 90 93 97 100 104 104 104 105 107 106 106 106 106 104 105 106 108 106 108 108 106 99 95 94 94 93 90
48 62 66 69 72 71 69 70 74 72 78 84 82 86 90 91 94 98 101 105 104 104 106 107 110 114 115 114 111 108 105 107 108 108 110 109 105 101 97 97 92 86 81
54 60 67 75 77 76 73 71 72 83 83 82 88 92 94 96 99 102 104 104 105 105 106 110 114 118 118 117 116 112 109 109 109 113 111 107 104 101 96 92 84 78 74
57 64 70 73 75 73 69 75 80 84 85 88 91 94 99 99 102 104 105 107 108 108 110 113 115 116 117 118 119 116 114 112 114 113 110 102 102 101 94 87 78 74 70
61 66 69 72 72 74 78 82 84 85 86 90 93 96 101 104 103 105 106 106 108 113 114 114 116 118 119 119 119 117 116 113 114 112 107 102 98 94 87 81 74 70 64
65 70 71 73 75 77 80 83 83 87 89 93 95 98 101 103 105 106 107 108 112 116 119 120 120 120 121 123 122 119 117 116 112 110 107 99 93 84 80 75 69 64 59
59 62 68 76 81 84 85 87 88 89 91 95 97 99 101 103 106 108 108 114 117 120 123 122 118 119 121 123 121 119 118 115 110 107 102 91 83 77 76 71 66 58 52
60 63 66 70 73 77 81 85 87 87 89 92 95 99 101 104 105 109 114 118 123 124 123 121 120 121 121 122 122 118 112 111 106 101 88 83 76 72 69 66 62 56 50
59 61 64 68 71 74 76 78 79 82 87 91 95 99 102 105 110 114 119 120 119 118 120 123 124 123 124 124 122 116 109 103 99 92 78 78 71 68 64 60 57 53 52
63 64 64 64 64 67 71 76 80 84 87 89 95 100 105 110 115 117 116 113 113 118 121 126 126 126 125 125 122 116 107 98 92 87 74 73 67 64 59 56 55 52 51
54 57 60 63 67 71 75 78 80 84 89 94 101 107 110 111 111 112 110 112 115 118 121 122 123 124 122 121 119 111 102 91 85 79 69 66 63 60 56 53 52 51 50
59 63 66 68 70 72 74 79 85 91 97 101 103 103 105 107 109 107 108 110 111 117 122 124 125 124 122 115 108 102 95 85 81 74 67 59 61 59 56 52 51 49 48
64 65 68 70 70 73 79 87 88 88 91 94 93 94 97 99 102 105 108 110 114 118 121 123 126 125 117 108 100 92 88 80 75 71 67 59 59 57 55 50 48 47 46
63 66 65 70 77 78 78 74 88 91 91 92 96 97 98 101 105 110 112 115 115 117 117 119 117 112 107 100 92 86 82 75 70 66 63 57 57 52 54 48 46 44 44

GFSMA_250_spd_054.txt.gz
Wind_Speed
36 36 38 40 42 45 43 43 44 41 41 43 44 48 44 51 55 57 59 58 62 67 72 75 78 80 82 80 76 75 70 65 66 63 64 63 64 66 64 63 62 61 61
46 40 40 42 45 48 44 47 47 46 46 48 50 53 51 58 57 57 60 65 71 71 74 76 79 78 78 77 77 73 69 64 62 63 64 64 63 64 64 64 64 65 66
49 43 45 49 48 52 54 50 49 53 53 54 54 56 54 56 58 64 66 72 69 73 78 78 78 78 75 73 72 67 67 65 65 65 67 67 67 70 71 71 70 71 72
54 51 50 52 54 54 54 56 57 56 62 60 60 54 55 58 64 72 70 73 77 77 76 75 76 75 71 69 66 68 68 69 70 71 72 73 75 78 79 78 76 77 76
59 59 54 53 55 52 54 58 63 62 63 58 58 60 60 70 70 70 71 77 73 78 80 78 75 74 71 69 68 70 71 73 76 78 80 82 83 85 85 82 82 81 80
60 56 53 56 54 54 61 63 63 58 59 61 62 65 68 69 73 75 76 78 78 75 75 76 75 75 74 74 72 74 80 82 85 88 89 89 90 90 90 87 86 83 82
59 62 62 60 58 61 64 61 61 64 64 65 68 71 77 73 75 78 83 80 72 73 76 76 77 77 78 79 82 86 90 93 97 99 98 94 96 98 94 92 91 91 89
58 59 58 56 57 61 64 65 66 68 65 68 71 73 74 76 76 78 78 74 77 79 77 78 80 82 84 86 90 96 97 100 103 107 106 106 105 99 97 96 97 96 96
60 64 66 65 69 71 70 71 74 74 76 74 73 68 68 74 76 76 77 80 79 81 81 82 85 85 88 93 98 100 102 106 111 110 112 109 106 105 102 102 99 96 91
57 55 56 59 64 67 71 72 71 70 70 71 71 70 73 76 75 74 77 79 81 81 85 89 90 92 93 98 100 104 110 114 112 114 109 113 112 110 109 103 97 94 94
55 59 61 62 67 67 69 72 75 82 77 76 74 75 78 79 80 78 76 80 84 87 91 92 95 95 96 100 106 113 111 111 108 112 114 116 116 111 105 100 99 97 93
60 63 66 66 67 70 69 73 76 81 77 77 76 81 79 77 81 83 84 85 87 91 95 98 98 102 107 110 109 108 106 108 111 114 115 115 111 108 103 102 100 99 95
60 62 64 64 69 67 69 69 70 71 75 76 76 78 79 79 84 87 86 87 93 98 99 101 108 110 110 106 105 107 109 112 113 110 107 107 106 107 110 110 106 101 97
57 62 63 65 65 62 61 63 67 70 75 77 79 80 82 82 81 86 89 93 96 98 103 109 107 105 102 104 106 110 110 108 111 109 110 108 107 113 110 109 109 99 98
58 61 61 63 62 62 63 66 68 73 77 78 79 81 79 84 89 90 94 96 99 101 100 103 100 99 102 103 107 106 109 111 113 111 111 109 110 110 112 113 108 98 96
40 56 56 60 59 59 61 65 71 74 76 81 85 87 89 91 92 95 98 100 100 97 95 91 93 94 99 105 108 111 112 113 111 107 105 106 110 114 115 114 105 94 89
33 42 49 58 58 60 64 70 74 78 79 77 79 81 83 85 88 90 91 91 94 88 89 89 86 95 97 101 106 109 109 107 105 107 108 110 112 114 115 111 100 91 84
50 57 63 68 72 72 78 74 72 73 74 76 79 81 84 85 87 90 91 86 88 86 88 85 89 94 102 107 108 108 109 106 105 108 111 113 114 112 109 103 93 85 79
52 63 69 73 78 78 76 74 76 76 77 80 82 83 86 83 80 82 85 84 84 85 84 86 89 96 100 102 105 109 107 106 108 111 114 115 116 108 100 93 84 79 73
67 71 74 78 77 75 73 74 77 79 78 75 74 76 79 80 80 80 82 86 85 84 88 92 94 99 99 103 108 108 103 106 110 113 117 115 111 104 94 87 80 75 69
71 74 74 71 69 70 70 70 71 72 73 75 76 77 77 77 80 84 81 78 81 87 89 92 100 101 102 102 104 103 108 111 112 116 114 111 108 96 86 80 73 69 65
67 69 69 70 70 70 71 72 73 74 75 76 76 76 78 82 81 80 77 79 85 87 91 98 101 103 101 105 104 106 109 113 112 110 110 104 101 92 85 77 72 65 60
46 44 44 40 42 46 50 55 63 69 73 76 78 80 75 72 75 80 82 86 90 91 96 104 103 107 106 108 108 110 114 115 111 107 104 96 96 87 79 77 70 63 57
40 41 42 42 47 50 54 55 57 63 69 71 73 75 79 82 80 85 84 83 86 94 103 110 113 112 113 114 117 117 117 112 108 102 100 89 90 83 79 74 66 60 55
41 43 47 50 54 57 57 59 62 65 65 66 71 77 84 85 87 82 79 80 89 97 107 113 115 115 118 121 122 118 113 107 103 99 93 87 85 79 75 70 63 58 54
52 53 55 59 63 63 65 65 66 70 72 74 72 72 78 80 77 83 83 87 92 98 107 113 115 120 123 124 126 119 112 104 100 93 89 83 79 73 70 65 58 51 49

GFSMA_250_spd_060.txt.gz
Wind_Speed
46 38 34 28 29 31 35 42 39 39 41 44 40 39 40 39 41 42 45 49 51 54 59 61 60 62 62 63 68 72 72 76 74 75 78 75 73 66 66 68 66 67 68
44 39 39 39 38 39 37 36 40 42 45 44 43 43 46 45 46 47 48 51 55 59 63 65 65 67 68 70 72 73 76 76 74 77 77 74 77 76 75 68 68 66 66
51 54 47 50 51 41 40 40 42 46 46 47 49 46 47 47 49 52 53 57 60 63 70 67 67 68 69 70 72 76 74 76 75 74 76 78 77 74 75 77 79 80 82
50 50 50 50 51 52 46 54 47 49 48 49 49 50 50 51 51 53 57 60 65 69 70 68 65 65 68 73 77 75 75 76 77 78 78 75 72 77 82 84 87 91 88
55 55 49 47 46 47 48 48 50 51 49 52 51 52 55 55 56 59 62 66 68 68 62 61 66 68 73 77 73 77 79 77 79 79 76 75 79 85 89 90 95 91 90
59 59 59 60 59 61 60 60 59 60 57 62 63 58 58 60 58 58 63 64 64 61 63 69 68 70 72 76 77 79 77 78 78 76 77 79 87 92 92 94 92 92 92
67 71 69 70 72 70 61 65 69 62 64 65 59 56 58 56 56 56 58 58 60 64 65 65 69 71 74 77 77 79 80 81 77 79 83 89 92 91 92 93 94 94 94
74 69 66 70 70 70 62 60 61 63 58 54 53 54 55 54 55 59 61 61 63 65 66 68 73 73 75 79 81 84 80 81 82 86 89 89 91 92 91 93 93 96 97
68 68 69 64 65 63 63 63 63 54 52 54 54 56 58 60 59 60 61 61 62 65 68 70 73 78 80 84 84 81 81 85 88 88 88 90 89 92 93 95 98 99 100
70 67 65 66 61 63 62 56 55 58 56 55 59 58 59 63 64 62 66 63 63 63 70 74 81 83 84 82 81 81 88 89 89 92 90 88 89 91 96 100 100 103 104
55 59 53 51 56 64 59 54 57 58 58 62 61 60 62 67 68 68 65 61 63 71 75 79 84 82 80 78 82 85 86 90 90 89 88 90 93 95 99 100 104 102 104
46 52 59 54 59 57 58 58 58 60 63 62 61 59 57 64 63 60 54 67 74 76 79 86 81 79 84 83 83 86 86 86 84 87 91 90 94 97 96 102 100 102 108
39 44 48 52 56 55 54 57 56 59 58 57 58 58 57 52 52 58 69 75 77 80 81 80 82 85 85 85 83 80 80 83 84 85 90 92 94 96 101 104 109 111 112
42 46 48 50 51 51 49 48 51 52 55 56 49 46 51 58 64 69 75 78 79 80 78 81 84 84 79 78 81 82 80 82 83 86 86 90 95 101 104 106 100 100 103
42 44 47 48 47 47 48 50 53 50 46 47 52 55 60 66 71 74 77 78 78 76 76 76 75 79 81 81 79 78 81 84 82 82 88 95 101 101 103 105 108 111 109
43 46 49 51 55 54 57 58 56 55 55 59 59 62 68 73 72 73 81 78 77 74 70 73 71 73 74 78 81 82 83 82 83 93 99 100 103 102 100 100 103 107 112
48 51 53 53 50 47 48 51 57 60 64 61 67 67 69 71 78 78 73 69 68 64 59 60 65 69 73 76 82 82 84 86 93 97 100 102 102 104 107 104 106 109 112
47 50 48 48 45 51 54 52 59 59 63 68 68 70 78 75 67 61 54 54 58 57 59 61 65 70 73 75 75 79 84 88 92 96 97 100 102 106 106 106 107 110 111
40 39 44 41 48 54 57 55 53 63 66 72 75 79 71 55 50 54 58 57 59 60 65 68 67 71 72 77 79 81 84 88 91 94 99 100 101 103 106 109 112 111 113
37 41 45 47 54 57 55 58 61 66 70 74 73 63 59 57 61 63 62 61 61 64 68 73 75 75 76 78 79 81 82 85 89 96 100 102 104 105 109 109 108 111 114
41 44 46 49 51 53 52 56 61 61 64 64 63 57 59 64 67 66 67 67 66 68 72 72 73 77 79 81 81 84 84 85 91 98 98 101 106 106 111 111 110 113 114
34 38 39 42 45 50 55 56 55 53 57 61 63 68 70 70 68 70 71 73 73 71 76 79 81 84 87 85 85 86 87 88 90 97 98 103 106 106 108 108 110 111 108
32 36 36 39 42 45 47 51 56 60 62 65 67 68 69 71 73 72 73 75 75 76 81 86 88 90 92 91 92 93 94 93 96 100 101 99 107 105 107 107 108 107 103
42 44 45 47 49 50 54 55 57 57 60 64 64 68 71 72 72 75 78 81 79 80 85 89 91 94 95 97 99 99 100 98 99 102 108 106 107 105 104 107 105 103 98
49 51 51 53 57 58 60 61 63 65 67 69 70 70 71 72 74 78 79 81 83 86 90 93 98 99 100 104 108 105 106 106 99 103 113 112 110 107 102 106 103 95 90
50 50 53 55 56 59 64 66 68 69 71 73 73 74 73 76 78 81 84 86 86 91 95 99 103 104 108 111 114 111 112 111 109 106 116 113 110 107 99 101 98 91 86

GFSMA_250_spd_063.txt.gz
Wind_Speed
45 47 48 43 39 36 26 36 42 45 44 42 41 36 36 36 38 38 36 38 39 42 45 47 47 51 55 59 62 64 62 63 66 64 68 74 71 71 72 74 75 73 72
41 42 42 43 45 42 39 42 40 39 40 44 36 38 38 37 41 40 42 44 46 51 48 51 51 57 60 63 64 61 60 62 64 70 72 69 70 69 70 72 73 75 72
47 48 51 50 54 51 50 46 40 38 39 42 44 42 42 42 39 52 45 50 50 51 52 53 55 59 57 60 60 60 61 63 67 69 70 70 70 71 71 72 72 72 75
42 43 44 45 43 43 44 44 41 40 41 41 47 44 48 52 54 56 54 51 50 51 53 56 57 58 56 56 60 59 63 66 68 69 69 70 73 71 71 69 73 77 80
33 39 44 46 48 41 41 41 43 45 48 51 55 56 58 56 55 56 54 50 49 51 54 55 54 56 59 58 58 64 66 70 71 72 73 74 70 71 69 74 79 82 85
50 47 51 52 54 49 51 52 57 61 65 65 61 59 48 51 54 52 49 50 52 55 53 51 53 55 58 59 61 61 64 68 72 73 73 70 69 71 77 81 82 84 85
45 48 54 59 59 62 63 61 62 66 67 64 51 52 65 68 59 52 52 53 53 53 52 57 59 63 59 58 64 68 72 75 74 71 71 73 74 80 82 83 84 81 79
61 57 59 59 63 65 65 67 70 63 60 56 56 57 59 57 53 50 51 49 51 56 61 63 62 55 61 67 70 73 75 76 74 76 76 79 81 82 84 81 78 79 79
59 62 62 67 62 61 64 63 59 49 51 51 52 48 52 55 53 55 57 58 57 61 61 57 54 62 66 71 75 77 77 78 75 78 79 81 82 80 76 80 78 79 82
57 61 67 63 48 57 52 52 41 46 47 48 49 53 61 58 53 59 63 62 61 57 51 57 64 69 71 76 78 79 76 76 81 83 83 79 76 77 75 77 80 81 82
59 52 51 53 50 44 42 44 44 47 49 51 58 55 57 59 62 63 62 54 49 50 56 61 67 73 77 78 77 74 78 82 83 79 80 80 76 76 76 80 78 78 84
46 39 38 38 40 41 41 46 50 53 53 57 53 55 59 57 54 52 46 44 53 60 63 67 73 76 76 74 75 77 77 77 78 77 73 74 76 76 77 78 81 86 94
38 40 39 40 43 44 49 50 51 53 54 54 58 58 53 44 41 43 49 55 59 62 66 71 73 74 72 74 71 70 68 70 71 73 75 77 80 79 80 83 87 93 97
37 38 42 46 44 47 50 49 49 52 54 53 55 55 54 53 48 48 52 56 59 62 65 70 71 64 60 61 61 63 65 67 69 71 73 75 77 79 82 87 92 96 99
40 46 48 47 43 42 44 46 49 54 53 55 59 53 51 50 52 58 59 60 62 59 64 59 56 59 62 62 62 66 70 73 74 76 79 81 84 86 88 89 92 94 97
39 42 42 42 42 47 49 52 53 52 51 50 50 54 49 50 57 60 59 60 55 54 54 56 63 61 63 65 63 66 67 70 75 79 82 84 87 90 92 94 94 96 100
36 40 44 48 49 50 51 53 55 58 58 54 56 56 55 57 55 56 60 55 58 64 59 61 64 64 65 66 67 69 73 74 78 81 84 88 90 90 92 94 97 99 101
44 45 46 45 48 51 50 52 49 46 44 48 51 51 58 54 56 64 64 63 63 60 67 69 67 68 69 69 70 73 77 79 80 83 85 86 88 93 97 100 100 102 102
42 40 41 44 50 51 50 46 45 46 49 47 48 49 55 63 64 63 62 63 65 68 70 67 69 70 72 75 78 77 80 82 86 87 90 92 94 98 101 99 96 96 101
36 40 42 45 43 40 40 39 40 44 53 49 54 55 59 58 59 63 64 67 68 69 71 71 72 75 78 79 80 77 81 83 88 92 94 96 98 102 104 102 100 100 102
24 26 29 32 33 35 35 35 35 37 42 44 45 50 55 59 62 64 65 66 67 68 72 75 75 76 77 77 78 81 84 86 90 96 97 101 103 106 108 106 105 105 104
28 28 31 32 34 35 36 35 39 41 45 47 50 54 54 57 59 62 66 67 68 69 70 74 75 77 77 79 81 84 86 89 93 97 101 104 108 109 112 111 109 106 106
29 32 34 35 38 42 44 45 47 48 53 55 59 62 63 63 65 67 69 67 69 71 73 76 79 79 84 84 85 87 90 94 98 103 105 107 112 113 116 114 111 106 108
43 43 40 40 41 44 46 48 52 53 55 59 61 62 64 67 70 71 72 73 75 75 76 79 82 85 87 88 91 93 94 98 103 107 114 113 116 119 120 117 112 111 112
50 55 53 51 53 50 51 54 57 61 64 67 67 68 73 75 78 80 80 81 80 80 83 84 86 87 88 91 94 96 98 102 106 111 119 119 120 121 118 112 112 115 117
58 58 58 57 59 60 61 61 64 66 71 72 72 73 75 77 81 84 83 83 84 85 88 90 90 91 92 96 99 100 105 107 110 115 122 122 124 125 115 111 113 118 119

GFSMA_250_spd_066.txt.gz
Wind_Speed
34 33 36 37 40 40 37 35 35 38 40 40 40 40 35 30 38 35 37 37 29 38 40 43 46 46 45 44 47 50 50 53 53 56 57 62 64 66 68 72 73 72 71
39 38 42 42 40 41 36 37 37 42 44 41 39 35 36 36 40 38 41 38 46 44 49 50 49 48 45 47 52 53 54 55 57 58 62 62 66 68 72 72 71 72 70
40 40 43 40 41 41 40 42 47 46 44 38 35 38 38 39 40 44 42 50 55 49 53 54 48 45 48 51 54 53 55 57 59 60 61 64 63 68 70 69 66 65 67
33 35 40 42 44 46 46 42 40 43 42 44 36 38 40 43 46 52 52 60 51 57 49 48 47 50 52 54 54 56 56 56 58 60 59 65 67 69 65 65 67 68 68
37 37 41 42 41 42 41 40 42 43 45 42 42 45 48 56 57 58 56 53 55 52 50 49 51 53 55 55 57 56 56 53 53 59 63 66 68 70 70 70 70 70 74
38 38 38 38 40 45 46 46 47 50 51 51 51 57 60 59 60 51 53 56 50 47 51 52 53 53 57 58 57 54 51 55 60 63 67 69 72 72 71 71 72 76 80
43 42 38 39 44 46 48 50 52 56 57 58 62 61 60 59 52 51 52 52 47 52 51 51 52 56 56 57 57 60 58 58 61 66 68 71 74 69 71 75 82 84 80
41 38 36 40 46 47 51 53 56 61 64 65 66 66 58 52 54 52 51 50 53 50 50 54 54 61 64 61 59 58 56 61 64 65 66 67 69 75 81 82 79 79 80
56 57 54 52 52 57 56 58 60 59 56 54 50 50 45 52 50 52 53 52 52 52 52 58 64 63 60 55 55 58 61 63 66 69 68 72 73 73 74 74 73 71 70
44 49 51 54 57 61 60 59 59 51 47 51 47 47 51 49 51 53 53 52 50 57 59 60 55 53 54 54 55 60 64 66 67 67 64 65 63 63 64 68 71 72 72
51 49 53 58 55 56 63 59 53 49 48 49 49 50 50 51 53 52 54 56 60 55 48 48 48 51 52 57 64 63 65 61 59 59 57 62 63 62 63 66 70 73 74
60 63 59 58 55 53 48 48 47 47 46 49 51 54 54 52 50 49 52 50 45 43 44 45 49 54 56 58 61 63 60 58 60 61 60 61 61 64 66 67 69 72 74
58 52 51 48 45 45 46 47 46 45 48 52 58 57 46 47 49 50 53 54 54 48 46 49 53 52 55 54 57 59 60 61 63 65 65 69 65 65 69 70 72 74 76
33 33 33 34 38 41 44 47 51 51 48 45 44 44 47 50 49 49 48 46 47 46 48 53 55 54 58 58 57 62 62 65 66 69 69 69 69 70 71 73 76 77 79
34 33 33 37 42 45 49 50 49 51 45 47 49 52 52 50 51 54 51 46 47 48 54 58 54 58 57 58 63 67 67 69 69 70 72 75 73 74 75 77 80 82 86
39 42 46 48 49 53 52 51 50 51 50 50 51 51 49 59 61 60 54 48 49 52 56 57 59 60 63 66 67 68 70 71 73 75 77 77 77 78 80 81 83 86 89
39 42 43 46 46 50 50 49 51 50 52 54 53 50 51 50 43 43 42 58 60 58 60 61 64 65 68 69 69 71 72 73 75 77 78 78 80 80 83 86 87 90 92
43 42 42 44 48 48 50 51 53 54 55 53 52 52 43 38 40 46 49 56 59 62 64 68 67 68 67 67 69 70 72 73 76 76 81 82 81 81 84 87 88 91 96
53 49 49 51 55 55 57 53 53 50 48 48 44 42 40 37 42 43 52 55 60 66 68 67 66 68 70 68 70 72 75 77 80 82 84 86 86 88 90 91 92 95 98
30 35 39 41 43 43 45 46 46 44 40 41 40 40 45 44 42 45 52 58 61 64 67 68 70 70 70 70 73 74 76 80 83 85 87 90 90 92 94 96 97 101 103
19 21 24 27 28 30 31 29 31 33 33 36 39 39 42 47 49 54 58 64 65 67 68 70 72 76 78 78 81 80 81 83 84 91 93 93 94 95 97 98 103 106 109
25 26 26 29 31 33 35 32 34 32 36 38 41 43 47 50 54 57 61 65 68 72 74 80 81 84 86 89 87 87 87 88 92 95 94 94 97 98 102 104 108 110 112
36 34 35 37 40 42 45 45 46 46 47 47 50 52 54 55 58 62 67 70 73 74 77 81 83 86 90 87 91 93 92 93 97 98 97 97 101 102 105 108 112 114 117
44 41 46 46 46 49 52 53 53 54 57 57 57 63 65 61 63 68 71 75 79 80 85 85 87 90 89 93 96 96 99 100 100 102 104 104 106 104 106 110 114 116 120
52 53 53 55 56 57 58 59 63 63 64 64 65 73 73 72 73 75 80 81 87 85 86 91 93 94 97 100 98 102 102 102 103 106 108 108 110 108 107 112 117 120 124
59 57 57 57 60 65 67 67 68 71 68 72 76 78 77 76 78 82 85 90 88 95 97 97 99 101 102 105 103 106 106 105 106 107 111 111 113 115 110 116 120 125 128

GFSMA_250_spd_069.txt.gz
Wind_Speed
21 30 27 33 41 38 36 36 30 33 33 39 39 36 34 32 31 36 36 35 37 39 38 43 46 49 51 49 49 50 46 46 49 51 53 56 60 60 61 62 64 66 69
24 30 31 36 34 31 33 34 37 41 40 42 40 34 34 33 36 38 36 35 37 38 46 49 53 48 55 51 47 45 48 51 51 55 57 58 60 62 64 66 65 68 71
30 31 29 30 33 34 37 38 38 35 36 39 36 38 40 38 39 39 36 38 42 50 52 51 49 56 48 46 49 51 51 52 55 58 59 61 61 63 62 63 66 67 68
37 37 35 35 38 40 42 40 41 39 39 38 38 41 41 44 41 39 42 46 51 54 54 51 51 52 51 52 53 53 53 55 59 61 60 62 60 64 65 66 69 69 70
31 30 29 28 32 37 40 41 39 32 37 42 42 44 47 43 46 47 50 56 58 60 55 50 48 49 52 53 54 52 54 57 60 61 63 65 64 63 68 68 66 63 66
33 32 30 30 33 36 37 36 36 38 41 46 47 46 49 51 53 56 56 62 60 53 50 49 48 53 55 56 55 54 56 56 59 65 59 59 61 55 60 60 58 63 68
36 36 35 36 36 38 36 40 39 39 42 46 54 56 58 59 60 60 61 57 52 52 51 52 53 57 56 54 54 56 59 68 59 57 59 60 63 66 57 55 58 59 61
48 43 41 42 38 36 31 35 39 46 49 55 58 62 62 61 58 57 53 49 51 53 54 56 56 54 54 55 59 62 64 58 54 55 59 60 53 53 58 59 58 59 60
50 53 45 42 39 39 44 44 46 50 58 60 62 62 61 58 56 51 49 52 56 55 56 54 55 55 59 60 62 60 56 58 60 62 60 57 53 56 57 59 60 61 61
43 40 45 46 49 52 55 50 52 55 62 64 58 63 59 52 50 50 53 56 57 58 59 54 53 56 57 56 57 52 51 56 60 58 52 53 58 60 60 59 62 64 65
45 47 44 44 44 47 47 49 54 57 63 60 61 54 49 50 52 53 57 59 57 53 51 54 55 56 56 52 49 47 49 50 53 52 54 58 61 63 64 65 66 68 68
49 51 52 52 52 55 57 60 60 59 59 59 53 50 51 50 51 56 57 50 50 52 51 53 54 54 48 47 49 52 49 49 51 56 59 63 64 68 70 71 72 72 72
54 56 57 60 59 59 59 61 62 58 54 49 47 48 50 56 54 52 51 55 57 56 54 55 55 48 51 49 45 50 51 54 57 59 62 66 69 71 73 75 78 78 75
58 55 56 55 57 51 50 49 49 49 46 47 47 50 48 51 50 51 54 57 57 58 56 61 63 59 52 50 50 55 56 58 60 62 64 66 68 71 71 73 77 80 83
36 38 37 37 36 34 34 35 41 45 47 51 53 50 52 51 53 55 57 57 61 62 54 50 53 53 51 51 55 57 58 59 60 62 65 67 69 72 75 78 78 81 85
29 32 32 32 33 37 39 41 43 45 50 51 51 50 52 52 56 59 60 56 60 58 55 44 53 54 57 57 58 60 61 63 65 67 69 70 71 74 77 80 83 85 88
39 39 40 44 47 48 50 52 52 52 53 54 54 54 56 62 64 61 57 59 58 51 45 49 61 63 62 64 66 68 68 67 70 74 79 80 80 81 83 86 86 89 91
38 41 42 45 48 48 49 51 53 56 56 56 57 60 63 63 58 57 55 49 47 43 44 49 54 61 65 66 68 70 72 77 77 79 82 88 89 89 91 93 92 95 96
37 44 49 49 50 53 52 53 55 59 61 60 64 62 54 54 51 50 48 46 42 45 50 54 58 65 69 71 73 72 75 81 81 82 84 87 90 91 96 96 99 101 103
20 25 30 35 42 49 51 50 50 49 48 47 47 45 43 42 41 43 45 47 49 52 56 58 60 64 68 68 74 75 75 81 83 87 89 91 92 97 97 98 102 104 106
19 19 20 22 25 26 26 27 27 29 31 34 34 38 38 40 42 44 46 48 53 57 61 61 63 67 70 77 79 80 82 85 88 91 94 97 100 102 104 103 106 108 110
28 28 27 25 28 30 32 35 36 37 37 40 41 42 46 49 52 56 57 56 61 64 69 67 75 75 78 83 83 86 90 91 94 98 98 100 104 104 104 106 108 109 108
37 37 40 41 40 39 39 40 42 44 44 45 48 52 53 56 60 60 61 62 67 69 73 76 78 81 87 91 91 93 94 93 94 98 99 102 106 104 106 107 109 110 111
43 43 43 47 47 48 48 53 52 50 49 51 55 58 61 63 66 67 70 73 74 77 77 80 81 87 92 98 100 101 102 101 102 105 107 106 106 106 108 110 114 113 115
51 50 50 51 54 55 55 56 59 60 60 59 60 63 63 64 65 69 73 76 80 84 84 85 89 91 94 98 106 106 106 107 108 109 111 108 108 109 111 114 118 119 118
52 54 56 57 61 62 63 66 66 67 67 67 68 69 69 70 70 74 76 79 82 84 87 91 97 98 99 103 105 108 109 108 110 111 113 112 114 115 112 115 119 121 123

GFSMA_250_spd_072.txt.gz
Wind_Speed
15 19 23 29 33 36 35 25 36 37 26 21 27 26 29 36 39 34 33 30 31 36 36 36 36 36 45 46 49 49 49 47 46 47 49 51 53 54 57 60 61 65 66
23 30 28 30 32 30 27 37 35 30 21 27 34 38 38 40 34 33 30 34 35 38 39 38 40 46 50 48 49 48 47 45 49 50 52 53 55 56 58 63 65 66 70
23 22 27 29 29 29 30 39 28 27 28 28 31 32 33 30 31 31 36 40 38 41 42 40 49 52 53 51 47 51 51 51 52 53 54 55 55 57 62 64 65 69 71
31 27 27 25 28 27 33 28 28 27 30 32 32 32 34 33 33 35 37 40 42 42 46 51 53 54 50 48 50 53 53 55 55 53 54 55 58 61 63 66 68 65 68
34 32 29 29 26 27 28 29 33 32 28 31 35 37 38 38 37 39 43 44 46 50 53 54 55 58 50 50 51 52 54 56 58 56 57 58 59 62 67 65 67 66 53
35 34 31 33 33 34 33 28 28 32 33 39 39 42 43 40 42 45 50 52 55 59 58 59 59 53 52 49 53 58 59 55 57 57 60 61 69 71 65 63 64 66 53
37 31 30 29 30 25 30 29 33 40 40 35 40 41 44 45 46 49 52 57 60 62 57 58 54 53 54 57 56 58 55 50 52 59 66 67 67 65 61 69 64 53 54
41 35 35 34 33 32 34 34 37 40 36 39 45 47 48 55 59 58 60 63 66 51 52 51 52 54 53 55 56 53 52 57 62 62 62 62 60 57 60 54 53 53 56
42 43 39 35 34 36 34 38 39 39 40 46 48 50 54 60 62 65 67 63 49 46 46 47 49 55 61 53 56 60 60 57 60 60 58 53 57 52 44 49 54 58 62
44 44 48 50 50 51 51 50 49 46 53 54 57 55 58 63 64 63 58 54 45 45 46 51 57 55 59 60 56 59 58 56 57 55 50 52 47 46 48 51 56 60 63
45 47 46 51 51 53 48 51 47 53 55 57 56 56 58 61 63 62 58 43 45 45 48 58 64 61 56 59 57 52 52 50 53 52 47 45 47 49 51 53 57 60 61
53 50 49 45 44 47 49 54 54 54 58 59 61 62 61 64 62 56 43 43 48 56 55 55 53 55 57 58 54 54 51 55 56 47 47 49 52 52 57 60 61 64 63
58 59 53 51 54 52 55 56 59 60 63 66 69 68 64 65 57 47 45 54 50 50 50 52 57 58 60 57 60 61 58 51 51 44 47 51 53 55 59 63 67 70 72
62 60 59 60 61 62 63 61 64 65 66 70 67 66 60 52 45 51 52 55 52 50 53 58 62 61 62 60 60 62 48 44 46 48 51 55 57 60 64 67 71 74 75
65 65 65 63 69 67 68 66 67 66 58 53 49 42 39 45 54 58 61 56 53 53 57 62 62 65 64 62 63 57 49 45 50 53 56 60 61 66 69 69 72 76 80
51 48 50 47 51 49 45 45 40 38 38 42 46 50 56 58 59 58 56 57 61 59 60 63 63 64 65 58 45 42 44 46 50 54 59 62 67 67 70 75 80 83 84
31 34 38 41 40 40 38 40 40 44 46 46 48 48 52 57 58 58 60 61 63 65 66 62 57 59 55 54 50 51 54 55 55 58 62 65 69 72 76 81 84 87 89
36 35 36 39 45 46 44 48 51 54 54 55 55 58 58 62 65 63 64 64 62 62 54 50 46 47 48 50 52 56 58 62 63 63 65 72 74 79 81 84 88 90 91
21 26 34 41 45 47 47 50 52 54 56 58 57 57 59 62 62 63 58 54 50 46 41 45 49 49 52 51 56 58 62 67 70 71 73 76 79 84 88 89 92 93 93
15 16 17 20 23 28 33 39 42 46 51 54 52 43 40 40 38 38 38 40 44 45 49 51 57 58 61 63 64 66 66 70 79 81 82 85 85 87 93 95 97 99 96
22 23 26 25 22 22 24 26 28 27 27 30 33 35 35 37 39 39 42 46 48 51 55 59 62 62 67 67 74 74 77 80 83 88 90 90 87 88 96 99 101 103 100
34 33 33 33 30 31 32 36 35 34 35 35 36 40 42 44 47 49 53 55 57 57 59 61 63 61 67 71 75 81 83 86 88 89 95 100 104 105 101 103 106 104 103
40 40 40 39 39 40 43 45 45 44 44 43 45 48 46 48 53 56 57 59 60 63 64 67 67 68 70 73 78 83 87 88 92 94 100 105 107 103 105 110 109 109 108
44 44 43 43 47 49 49 49 48 50 50 53 53 53 55 57 62 63 65 66 69 70 69 73 75 75 77 79 82 85 91 94 96 98 105 108 108 105 109 110 110 112 114
50 52 56 53 49 50 52 56 57 58 58 57 59 59 59 61 63 66 69 70 73 74 75 79 82 81 83 87 89 92 96 98 100 101 105 108 104 106 108 109 112 116 118
55 57 62 63 63 64 64 67 68 68 68 67 67 66 68 69 68 71 73 73 77 79 83 84 84 86 92 96 99 98 100 101 106 110 107 107 105 109 105 109 114 121 125

GFSMA_250_spd_075.txt.gz
Wind_Speed
37 29 28 26 23 23 27 31 38 32 28 31 26 23 20 21 23 26 29 29 26 25 29 33 33 36 39 40 41 44 50 51 45 46 53 51 53 53 53 53 52 53 55
33 28 32 27 26 25 36 42 39 37 29 32 25 22 21 24 24 27 32 26 27 29 34 36 38 39 42 42 46 53 54 48 49 51 51 52 54 53 49 49 52 55 58
28 26 21 22 24 28 29 38 46 41 32 33 21 24 22 24 22 23 27 30 31 32 36 38 39 41 45 49 51 54 53 53 50 49 52 52 54 51 52 54 57 58 62
40 31 31 27 27 29 33 38 41 32 34 29 24 24 29 25 25 30 31 34 32 36 39 41 45 48 52 56 53 53 57 50 51 50 53 56 53 56 55 57 60 61 63
36 35 33 28 27 29 31 32 31 29 27 29 25 27 29 31 29 33 36 35 36 40 44 46 48 54 57 57 62 56 55 49 49 52 52 55 56 56 56 55 61 63 62
33 30 25 25 26 31 32 26 29 27 32 31 31 32 32 35 36 39 38 41 42 44 50 54 56 59 59 59 54 56 52 47 48 54 55 55 53 55 59 60 58 58 59
31 34 30 30 33 33 31 28 28 31 31 32 35 33 37 37 42 43 45 46 50 50 54 58 62 63 68 54 52 47 45 49 56 53 50 52 55 54 55 55 55 53 52
35 30 33 37 40 37 31 33 29 31 33 37 39 38 41 44 45 46 50 54 52 56 59 60 62 66 54 46 44 45 51 53 44 52 57 59 57 57 53 53 49 51 47
41 41 37 35 40 33 34 34 38 40 40 40 40 44 45 48 48 55 54 54 56 59 65 67 65 53 46 44 45 51 50 52 54 55 56 56 55 50 45 47 46 45 48
39 44 47 43 43 48 42 36 36 35 37 40 44 51 54 54 55 58 55 57 60 63 64 60 61 48 46 48 53 58 57 55 56 59 55 54 54 48 48 46 45 45 45
60 51 49 53 51 51 50 51 53 53 50 51 52 54 56 57 57 58 60 60 65 63 61 61 50 50 51 55 54 55 56 57 61 58 55 52 52 46 45 44 42 42 45
57 52 52 46 44 46 49 49 50 53 56 55 57 58 59 60 61 64 63 65 63 60 60 59 52 51 52 52 56 55 59 62 60 58 54 55 47 44 42 43 43 43 49
54 56 56 55 54 54 53 57 56 54 54 57 58 60 63 65 68 67 69 66 56 58 54 52 54 53 54 55 56 60 61 60 58 57 56 55 46 46 44 44 46 51 52
57 60 60 62 61 62 63 64 67 66 65 63 64 67 68 70 70 73 70 61 51 46 46 57 57 59 59 58 59 62 61 57 53 48 48 46 46 50 52 52 55 57 58
58 61 62 64 66 68 68 69 66 66 69 71 71 70 71 68 58 51 44 44 46 49 53 59 60 57 56 57 60 59 56 48 44 47 46 50 52 54 57 59 62 61 62
62 63 65 68 69 69 69 70 73 73 72 77 74 65 54 50 51 52 53 53 50 51 57 63 59 58 59 62 57 54 48 44 44 48 52 52 55 58 60 63 66 69 73
58 53 57 62 63 62 62 63 63 57 53 52 52 52 55 53 51 51 53 53 57 58 55 60 59 61 60 53 45 42 43 47 50 54 56 59 63 64 67 70 72 77 79
34 39 41 43 41 41 43 45 46 47 49 48 48 49 51 52 54 55 54 58 59 62 62 63 55 50 44 43 43 45 51 57 62 66 67 68 69 71 77 79 83 86 85
19 19 22 27 32 36 41 46 48 52 56 56 57 58 58 58 60 61 63 63 62 59 47 41 39 41 42 49 51 54 57 62 67 68 68 69 74 75 78 83 87 90 95
19 19 19 19 20 22 26 28 30 35 38 42 46 50 51 51 50 50 46 46 45 44 43 41 44 47 46 51 56 58 61 62 67 71 69 70 73 80 85 88 96 101 99
30 28 26 26 30 30 30 29 29 27 26 28 31 34 36 38 39 41 43 47 47 46 47 51 53 55 55 57 60 63 64 68 72 74 73 77 81 84 85 92 97 100 103
39 40 41 39 37 38 38 38 38 37 39 41 42 43 43 44 47 49 51 52 52 54 55 59 61 61 61 63 69 72 71 74 78 79 81 81 85 90 91 94 97 102 106
46 46 46 48 49 48 48 47 46 46 48 49 50 52 51 53 55 57 60 60 59 60 61 65 67 68 68 69 70 74 80 80 83 88 85 90 92 96 98 100 100 103 107
49 48 50 50 50 53 52 54 55 53 51 52 56 60 60 62 63 66 68 68 70 71 70 71 73 74 74 75 76 80 83 86 88 88 93 98 100 103 105 103 104 111 111
55 55 56 54 52 56 59 62 60 60 61 61 60 63 67 70 71 73 75 76 78 78 80 82 83 81 81 82 83 84 89 93 95 97 99 103 106 107 106 111 112 110 112
61 60 59 58 54 57 66 65 66 67 64 65 68 70 76 73 74 77 80 82 84 86 86 85 86 87 88 86 88 90 92 96 101 104 106 108 111 114 114 105 105 108 104

GFSMA_250_spd_078.txt.gz
Wind_Speed
52 45 43 35 32 34 33 31 25 34 33 36 35 38 36 31 23 19 19 22 22 22 20 22 23 28 32 35 38 38 41 42 46 51 56 56 56 51 51 47 46 44 46
49 42 32 26 19 15 25 25 30 28 31 33 35 37 36 26 21 21 22 22 19 21 23 26 31 33 34 34 36 42 46 48 51 55 57 57 53 51 49 48 48 50 52
48 37 28 25 19 28 26 24 24 28 38 37 39 39 36 24 22 23 22 22 21 25 28 32 34 37 38 42 45 48 48 53 57 56 55 56 53 49 49 50 53 52 53
55 50 38 37 34 33 33 25 28 30 43 40 42 39 36 26 26 25 25 28 26 28 33 35 39 42 42 46 49 50 56 58 60 55 54 56 51 46 50 53 53 51 54
45 43 38 34 29 24 28 29 26 34 43 45 40 40 37 28 28 29 30 29 31 32 37 41 41 45 49 51 52 54 59 62 62 57 53 48 46 50 46 49 49 51 54
50 39 30 28 32 29 29 25 25 36 37 46 42 41 33 32 33 32 34 35 35 39 44 46 46 50 51 53 55 60 62 66 59 51 47 47 49 44 45 47 50 53 52
60 47 37 35 34 35 28 29 29 30 34 42 35 37 40 40 38 40 42 39 41 46 48 51 53 52 53 56 60 63 67 65 56 48 47 48 44 47 51 53 53 53 51
52 41 37 34 34 32 29 32 34 36 30 35 39 38 38 47 42 41 40 42 45 50 53 57 55 56 58 60 65 66 63 61 51 47 50 48 54 55 56 56 52 51 51
54 48 46 44 32 33 33 35 38 39 35 39 38 39 43 46 43 43 47 48 53 56 58 57 56 60 63 66 69 64 65 56 49 47 51 57 54 55 53 52 50 51 53
50 52 53 50 37 34 27 32 38 43 40 40 42 44 47 46 46 51 53 56 57 56 58 59 62 65 67 63 63 59 57 53 50 50 52 56 53 54 47 51 51 53 50
56 56 46 41 41 38 41 42 44 46 50 54 47 46 44 52 52 52 57 57 62 61 60 64 67 68 67 60 62 62 55 52 54 55 57 56 54 49 43 47 53 49 47
57 47 48 48 50 48 47 52 55 54 55 54 57 55 54 53 55 57 58 60 61 63 65 70 76 74 70 69 65 55 52 56 54 58 59 58 52 44 41 40 41 48 50
49 52 50 50 51 55 62 57 52 50 49 52 56 53 54 55 56 59 65 66 66 67 70 73 75 76 72 64 54 52 57 59 62 63 59 54 49 45 42 40 42 48 50
52 56 58 58 62 57 61 58 58 56 56 57 57 60 63 65 66 68 70 69 70 72 75 79 73 67 59 52 54 58 56 58 64 61 57 50 47 42 44 46 47 48 54
53 52 53 57 58 59 61 61 63 64 65 67 67 66 67 69 72 73 75 77 78 78 83 74 66 61 56 53 56 59 63 63 61 56 49 44 42 41 45 49 53 57 61
53 57 59 58 59 60 61 64 65 66 67 71 72 73 73 76 80 81 81 80 74 63 59 60 58 56 55 61 65 63 62 59 52 46 45 47 50 53 56 58 62 63 64
52 59 63 62 64 66 67 70 70 72 73 73 74 74 73 70 62 62 60 57 57 54 48 55 55 57 59 60 59 56 51 47 43 48 51 53 57 59 63 65 66 68 71
37 45 48 50 53 56 58 58 57 57 56 57 57 55 56 56 56 56 53 54 55 55 53 53 61 59 55 51 49 45 45 45 47 52 55 59 61 65 68 68 69 72 75
23 25 27 30 33 37 41 45 48 50 51 51 52 54 57 57 58 59 60 63 61 61 58 56 45 45 43 43 46 48 50 52 54 57 62 66 66 69 73 76 76 78 79
25 26 27 29 32 33 33 31 31 31 33 36 38 41 42 41 42 42 41 41 41 40 40 38 40 44 46 48 56 60 59 63 64 66 67 70 72 76 78 81 80 82 84
29 31 32 33 34 37 39 38 39 38 37 36 35 36 36 38 43 44 43 44 45 45 47 49 50 51 54 55 59 65 67 71 70 72 74 75 79 81 84 83 85 86 90
38 39 41 42 42 44 45 46 46 46 47 47 47 47 49 50 53 54 54 52 54 55 58 62 63 63 64 66 68 73 75 77 78 78 80 82 82 84 86 88 89 92 94
43 44 43 44 46 46 46 48 49 50 52 53 53 54 53 55 58 59 59 59 60 60 62 67 70 72 72 75 76 75 80 81 83 83 81 83 84 84 87 91 93 97 100
46 48 52 52 51 53 53 54 54 53 51 53 53 55 59 61 62 62 62 61 64 63 71 71 71 72 76 77 81 81 81 83 82 82 82 85 87 90 92 94 97 100 106
52 55 56 57 56 60 59 61 58 57 54 56 56 62 56 58 63 67 69 69 70 72 77 77 77 78 79 80 83 85 85 89 87 84 83 88 93 94 95 100 102 107 111
57 61 61 63 63 64 62 57 63 67 64 65 68 66 63 64 69 72 76 78 77 81 83 82 77 81 85 88 90 95 95 82 90 87 88 91 97 102 107 109 114 116 121

GFSMA_250_spd_081.txt.gz
Wind_Speed
46 38 38 39 43 33 34 34 29 32 29 24 28 34 36 35 38 34 31 24 25 23 21 23 21 21 26 30 30 32 33 34 37 42 46 48 53 58 61 60 53 52 48
39 38 36 34 38 31 15 15 23 23 24 24 26 33 39 34 38 39 36 28 26 23 22 22 22 26 29 31 33 39 40 40 42 46 48 50 57 62 59 52 53 51 46
52 39 39 38 33 30 17 18 16 15 19 25 27 33 40 39 38 36 30 27 25 24 23 23 28 29 33 35 37 41 44 47 48 47 50 56 60 63 61 51 49 45 45
53 49 44 42 35 25 28 32 26 27 26 30 32 39 40 41 40 37 29 23 24 28 29 29 30 31 36 41 44 46 49 49 48 51 53 59 65 63 57 47 45 47 45
51 43 44 43 39 40 40 20 21 30 29 26 30 44 40 40 41 36 28 26 29 31 30 34 34 36 41 43 46 51 51 50 53 54 59 66 61 62 53 47 47 45 47
47 44 49 37 36 40 26 25 24 27 23 24 33 42 39 40 40 41 35 33 32 33 38 38 39 40 45 49 53 52 53 53 55 60 64 66 59 54 48 47 46 50 50
47 55 48 39 38 26 24 26 29 30 20 21 22 34 40 39 41 45 41 42 40 39 43 42 44 45 52 53 54 55 56 57 60 63 62 59 51 50 48 47 49 48 52
53 54 44 45 38 29 28 31 31 26 25 25 22 29 37 38 40 44 42 46 43 44 46 48 50 53 56 54 56 57 57 61 63 64 60 58 52 50 49 49 53 56 54
61 60 57 46 39 42 34 33 35 30 27 30 31 36 37 43 42 44 47 50 49 48 52 51 56 55 58 59 61 60 61 66 69 69 67 62 53 50 50 52 55 55 52
54 57 61 55 45 42 40 38 33 34 30 37 38 41 37 44 46 48 47 50 48 57 55 55 58 58 61 63 65 66 66 70 74 72 71 59 49 52 52 57 58 55 51
49 49 51 50 50 45 44 41 35 34 33 32 37 43 42 44 49 52 53 53 56 57 56 60 62 61 65 68 69 70 70 74 75 73 58 49 51 56 57 61 58 52 47
48 51 53 53 50 52 48 45 44 43 45 41 41 45 46 48 56 58 58 59 57 60 60 62 64 68 69 70 72 74 76 76 76 63 53 51 55 57 61 58 52 47 41
48 48 49 53 53 51 51 51 48 47 49 52 51 52 52 55 56 57 63 59 61 62 66 68 69 72 73 75 76 77 78 77 67 55 56 55 56 61 61 55 46 42 39
51 54 61 60 58 59 57 53 50 52 54 57 56 56 56 57 57 60 61 64 68 67 67 73 75 78 78 79 79 73 67 61 58 56 56 60 61 62 56 45 42 44 47
36 41 41 44 48 49 53 56 56 56 56 54 54 57 61 63 66 70 69 69 68 71 73 77 80 83 80 67 62 60 58 59 56 59 60 63 62 58 51 46 49 50 52
47 45 44 46 51 55 55 55 56 58 59 61 62 62 64 67 68 71 73 75 77 80 79 78 73 68 60 58 58 59 57 56 58 62 63 63 54 48 46 51 55 57 60
56 56 54 54 54 56 58 58 61 63 64 64 68 69 71 74 76 77 75 72 67 59 57 57 57 57 57 57 58 59 60 62 60 63 55 48 47 47 51 56 60 63 66
38 55 53 52 51 51 55 58 60 63 64 68 68 64 63 61 58 59 58 56 56 56 54 52 58 59 60 60 58 59 56 50 47 49 50 51 55 57 60 64 66 70 71
15 16 18 22 24 28 30 31 32 36 40 42 42 42 45 46 49 49 50 53 55 55 50 44 42 46 45 46 45 47 52 52 53 57 59 61 64 66 69 71 74 75 76
23 24 24 25 25 26 27 28 29 31 33 34 35 37 39 40 41 41 40 39 37 40 39 38 38 42 44 48 49 55 59 62 64 66 68 69 71 75 76 77 79 81 82
28 28 29 29 31 35 36 36 36 37 39 40 41 44 44 44 44 46 47 49 51 50 50 49 47 48 51 54 54 55 56 61 64 70 74 77 80 79 81 83 84 82 82
31 34 37 38 39 39 39 40 36 39 40 39 42 44 46 48 51 52 50 51 54 54 56 58 57 55 55 57 59 61 64 71 71 72 75 79 79 82 83 84 87 88 86
39 38 41 43 43 45 45 42 46 46 46 46 47 49 50 50 50 50 52 54 57 58 56 58 54 59 59 64 67 67 68 75 79 76 78 79 82 84 88 90 91 92 93
44 46 47 47 47 50 45 48 48 50 51 53 55 56 53 53 51 59 60 62 66 66 63 60 62 63 65 67 74 77 81 85 81 80 81 82 86 91 94 97 99 98 94
50 53 54 54 55 55 52 54 58 56 57 59 62 63 57 57 64 70 67 68 72 73 73 75 72 71 75 73 81 86 91 97 92 87 85 86 90 87 86 91 94 92 97
56 56 58 59 58 58 59 62 63 61 59 60 65 65 62 63 72 72 72 72 71 70 75 74 76 79 79 84 89 95 96 102 97 101 88 88 80 85 92 102 106 102 105

GFSMA_250_spd_084.txt.gz
Wind_Speed
48 45 40 39 33 34 28 31 28 23 25 25 24 24 21 27 31 35 34 33 31 28 27 25 23 26 22 21 23 26 30 30 33 36 40 44 45 44 49 49 53 53 55
52 45 37 39 36 37 35 30 20 14 16 19 22 17 23 33 36 34 32 33 30 29 27 26 20 26 24 25 27 29 30 33 37 41 44 44 44 48 50 52 55 58 49
55 50 38 38 34 31 28 21 14 11 10 11 12 24 23 27 31 33 32 35 35 30 27 29 24 23 25 24 29 32 30 35 40 42 43 45 45 50 53 56 57 54 46
53 47 44 41 35 29 24 27 24 18 19 21 20 27 31 28 32 34 34 37 38 35 28 26 25 28 30 32 35 33 36 40 43 43 47 49 51 55 56 57 52 50 45
49 51 46 35 29 23 25 22 23 25 18 19 29 27 24 25 31 34 36 35 34 28 28 25 29 29 32 34 39 39 43 45 46 46 50 52 55 57 60 57 55 50 47
51 48 47 40 34 32 36 29 31 22 20 29 23 23 25 23 30 36 36 38 35 31 31 30 31 32 37 40 42 45 49 49 47 49 53 56 57 58 63 64 63 47 44
46 45 52 48 39 39 37 39 38 38 27 20 21 21 21 18 26 33 36 37 40 40 35 40 41 40 42 42 46 48 51 49 52 55 56 58 58 61 65 65 61 48 44
38 43 44 46 38 39 37 33 25 23 21 24 21 20 21 20 22 30 34 34 38 43 49 49 48 47 47 49 51 52 54 55 57 59 59 60 63 65 67 67 50 42 43
38 39 42 47 48 34 31 24 23 24 27 30 25 26 27 26 25 29 32 37 41 50 47 49 50 49 50 54 56 58 58 59 61 61 63 64 66 68 69 59 43 45 47
41 46 50 52 52 54 45 35 36 33 29 36 34 31 28 28 29 31 35 43 44 45 46 50 52 52 54 59 59 60 62 63 64 67 69 69 70 72 68 48 44 46 49
44 50 48 54 53 51 51 45 42 37 42 37 40 34 33 35 38 43 43 42 44 50 50 52 53 59 61 62 64 67 67 67 68 70 72 72 71 66 57 49 50 48 52
49 48 46 46 51 54 51 46 45 42 38 35 35 36 43 40 40 41 42 45 48 53 54 54 57 60 64 64 68 70 69 71 73 75 76 71 65 55 52 52 50 52 56
44 49 47 51 55 53 48 50 52 49 44 48 48 45 44 44 43 49 52 52 50 52 53 56 61 64 66 69 71 73 74 76 77 77 71 61 54 54 52 52 54 59 62
49 51 54 52 53 50 52 51 51 56 56 52 51 55 50 52 52 55 53 49 51 53 57 63 65 69 71 73 75 77 78 81 74 62 55 55 55 55 56 57 60 62 57
42 48 52 53 54 52 52 52 53 55 58 58 55 51 54 57 56 54 53 55 58 58 63 68 70 74 74 77 79 77 63 56 54 53 54 56 56 56 57 58 56 50 48
39 36 37 42 47 47 50 47 47 50 53 54 55 56 57 57 57 60 61 63 65 67 68 72 75 79 70 64 57 56 55 55 55 57 59 57 56 56 47 47 49 50 51
42 38 40 41 41 43 45 46 46 49 52 55 57 60 62 64 64 66 69 70 70 71 66 62 58 56 56 56 59 59 58 58 58 57 55 51 44 44 47 49 53 57 62
47 56 54 52 51 52 51 54 56 56 59 60 63 63 66 67 66 63 62 52 44 44 40 40 50 53 50 51 44 42 40 42 41 44 45 45 49 51 54 57 59 62 67
14 16 21 31 41 47 51 54 59 59 58 49 39 34 34 31 32 32 33 35 35 37 35 33 36 39 42 44 46 46 48 48 48 50 51 52 53 54 54 55 60 64 66
18 18 18 20 23 24 25 26 26 27 27 28 29 32 35 36 38 39 40 40 41 41 41 41 41 47 50 51 50 54 54 55 56 58 57 57 58 60 60 61 64 65 70
22 22 25 26 27 28 27 27 30 32 34 35 35 36 37 40 40 40 40 42 43 44 44 45 46 48 50 54 57 60 58 60 60 62 63 63 66 68 70 74 77 80 77
27 29 28 27 29 32 33 35 37 39 40 41 42 43 45 45 46 45 46 47 49 49 48 47 47 50 54 58 60 61 63 62 62 69 66 69 70 71 77 80 84 83 79
38 36 36 37 37 36 38 41 41 42 43 44 44 46 47 50 54 55 56 55 58 58 52 51 54 57 60 64 67 69 69 71 71 69 72 75 76 79 83 88 90 90 85
44 44 44 44 45 43 46 47 47 47 48 50 52 53 52 55 56 59 61 62 66 65 63 62 64 69 71 67 74 76 75 77 76 73 75 80 77 80 87 88 91 85 86
50 53 52 51 51 49 52 53 55 55 54 55 55 58 61 60 61 62 61 61 67 69 67 70 74 71 69 70 75 74 76 83 79 76 78 82 84 93 97 88 95 92 97
56 57 57 58 58 58 57 58 59 59 60 61 62 63 63 66 68 63 63 67 69 69 73 79 80 79 79 79 73 76 80 79 84 87 89 90 95 97 94 94 99 105 106

GFSMA_250_spd_087.txt.gz
Wind_Speed
55 54 53 49 45 44 38 31 25 25 23 18 18 17 15 10 13 19 28 27 27 26 29 29 28 29 25 26 24 24 25 21 24 25 28 30 34 35 37 39 42 46 47
56 50 49 50 41 43 38 30 33 29 25 22 18 16 10 10 12 22 27 28 26 23 27 30 27 29 26 28 30 26 25 24 24 27 30 33 35 37 38 40 45 49 50
60 49 46 53 45 44 42 34 28 23 21 19 15 11 6 10 20 23 28 27 28 26 28 30 29 28 28 24 23 25 25 28 29 33 34 38 39 39 43 44 47 49 51
61 52 51 47 42 46 40 28 23 18 19 18 16 12 13 17 22 18 25 27 28 28 33 34 27 27 28 25 29 27 28 31 33 36 39 40 41 43 45 46 49 50 54
53 58 54 49 42 41 33 30 20 21 25 23 22 22 20 18 24 13 21 27 24 30 37 36 34 30 25 24 29 32 33 35 37 39 41 43 45 47 48 49 52 53 55
48 46 59 54 49 36 37 31 26 24 27 26 27 23 20 17 18 15 14 20 22 26 32 34 36 34 29 27 31 36 39 40 41 43 45 47 49 50 50 52 54 55 56
37 46 48 53 53 48 43 26 28 27 23 27 29 25 15 13 17 16 17 17 22 27 34 35 34 33 34 35 40 46 50 52 49 49 50 50 53 54 55 56 57 58 60
35 41 42 50 52 47 33 32 38 28 28 29 26 25 17 20 19 25 26 23 26 29 32 37 41 44 45 48 47 48 48 49 51 53 54 54 58 58 58 60 63 62 63
30 42 48 50 46 43 36 39 37 34 34 24 19 18 19 24 26 25 23 20 29 32 37 38 42 43 45 47 47 50 49 52 54 55 58 59 59 62 64 64 67 66 57
37 35 52 47 45 45 38 40 32 29 26 26 22 24 26 24 22 28 27 24 28 30 34 39 39 43 43 45 48 52 54 56 57 59 61 63 64 66 68 68 68 64 48
36 32 38 45 47 41 45 38 37 27 27 29 29 28 28 34 31 33 33 31 34 37 40 40 43 45 48 51 55 57 54 55 59 61 66 68 68 71 72 72 64 48 44
33 36 33 37 46 49 43 36 36 32 34 40 39 37 34 33 31 38 37 39 42 41 40 42 46 50 51 53 56 57 57 62 64 68 69 71 72 72 66 61 47 44 48
40 37 46 43 47 50 53 53 46 46 48 50 46 45 46 42 41 42 45 44 46 46 46 52 54 52 52 54 57 60 63 66 68 70 71 72 65 60 48 46 45 48 48
41 42 48 42 48 52 53 61 58 58 56 57 52 53 53 51 51 50 51 47 51 52 55 54 51 53 55 58 62 64 67 69 72 73 68 55 54 48 47 48 49 51 49
44 47 51 51 52 54 54 52 51 54 55 55 56 55 53 52 55 56 58 56 54 59 61 58 58 60 63 65 67 70 73 74 74 59 52 54 54 53 53 55 55 50 42
53 55 51 52 53 55 55 53 55 56 57 56 56 56 55 57 58 58 57 58 62 61 60 64 66 68 71 74 75 73 64 57 53 53 55 54 53 50 45 42 38 39 41
45 51 54 52 57 56 54 59 60 59 58 55 53 52 50 50 54 59 59 62 64 68 69 65 62 57 55 54 50 48 46 45 43 41 42 42 42 42 43 43 44 46 48
46 48 48 46 46 47 48 49 51 49 49 48 49 50 53 56 60 65 69 68 59 49 41 35 39 38 37 40 39 38 38 40 42 45 47 48 49 51 52 52 51 53 52
49 49 49 51 51 51 50 50 49 51 53 57 60 63 66 63 63 57 47 41 37 36 37 37 40 42 43 45 47 47 50 50 48 48 50 53 54 55 57 57 57 58 57
30 30 36 41 47 55 56 57 57 54 50 47 44 42 41 38 38 36 34 37 39 38 38 38 39 42 45 49 48 50 50 50 52 53 54 56 57 57 59 62 63 64 65
27 24 26 28 28 25 24 28 30 32 35 36 36 37 39 39 39 41 40 42 42 43 44 45 44 44 47 52 54 55 52 56 59 63 64 65 67 67 66 66 70 72 70
31 31 30 30 28 28 30 31 33 35 37 39 41 43 43 44 46 48 48 49 50 50 51 52 52 54 56 57 60 62 61 61 60 69 70 73 75 78 78 76 77 79 76
35 35 35 35 32 34 35 35 36 38 42 45 46 47 47 49 51 51 53 54 56 56 54 57 59 62 62 64 65 65 68 71 71 73 75 76 77 81 84 83 81 85 86
40 41 41 41 41 42 44 45 46 47 48 49 50 52 53 55 56 57 60 61 63 62 64 65 64 64 66 64 66 68 73 77 79 78 80 82 81 82 82 82 85 85 87
43 44 46 48 49 50 52 53 54 55 55 56 56 58 60 62 64 65 66 67 69 69 69 70 73 74 71 73 73 75 76 78 77 81 85 84 89 88 83 88 88 87 88
50 51 52 53 53 54 57 60 62 63 63 64 65 65 66 67 68 69 71 72 73 74 74 76 79 79 79 82 83 84 85 86 87 89 90 92 93 94 97 96 98 98 98

GFSMA_250_spd_090.txt.gz
Wind_Speed
37 44 46 50 50 50 46 44 39 33 25 24 25 21 18 16 14 11 9 13 20 23 22 26 24 27 28 31 27 27 25 23 26 27 20 23 24 27 31 33 34 37 38
42 50 50 52 51 53 47 43 41 34 28 27 27 21 20 15 10 8 11 18 23 22 19 22 24 27 28 32 31 30 27 27 26 24 28 30 32 31 32 34 35 39 40
47 54 53 54 53 50 51 45 44 35 32 31 29 22 21 16 9 7 11 15 19 19 20 21 23 28 29 28 30 30 28 26 25 28 29 30 33 34 34 37 39 42 43
50 61 59 57 50 47 49 49 42 41 34 33 27 24 20 17 11 8 12 14 16 15 19 23 27 31 32 30 29 28 26 26 26 27 31 32 36 38 40 44 43 45 47
49 64 64 57 50 49 48 48 43 39 31 30 26 23 19 18 16 15 14 14 16 14 16 21 29 33 34 34 36 29 27 28 28 33 36 40 44 44 46 47 48 50 50
44 55 62 58 49 52 46 48 48 32 29 30 29 29 24 21 21 18 18 20 19 17 20 17 30 37 36 36 33 31 28 28 34 37 42 44 45 47 49 50 52 52 51
36 36 51 60 51 51 52 50 44 37 27 31 35 31 28 24 21 15 18 21 20 16 12 19 23 32 42 43 43 40 36 36 42 46 46 47 47 48 52 49 53 57 58
33 36 41 45 56 49 48 43 44 39 33 38 39 32 28 30 25 24 26 25 25 17 21 16 20 29 39 42 44 45 45 48 50 53 49 49 50 53 52 56 59 61 62
35 40 38 48 51 53 53 43 43 37 34 37 33 32 29 28 24 29 28 26 21 22 17 23 24 28 36 40 45 45 46 47 49 50 51 54 56 54 55 59 62 65 65
32 32 38 43 49 52 55 49 46 41 39 39 31 31 26 22 22 24 25 25 24 26 26 27 31 31 37 41 44 45 48 48 51 53 56 58 55 56 60 62 65 64 65
29 28 31 39 39 51 54 53 42 39 40 39 35 32 31 26 24 28 25 29 31 32 29 31 37 38 39 39 40 44 48 52 56 55 57 58 59 62 64 67 65 63 61
38 34 36 42 45 43 47 44 40 41 45 38 32 30 31 32 34 33 30 30 33 35 40 40 41 42 42 42 45 50 54 57 57 58 59 61 62 64 67 64 60 57 55
35 38 35 44 43 42 42 38 42 44 40 43 44 40 42 40 36 35 38 42 41 46 45 46 46 48 50 51 53 57 55 55 57 60 62 65 67 68 61 58 56 54 51
38 35 31 44 47 41 43 47 42 46 48 47 46 45 43 44 46 44 48 45 46 50 50 52 52 52 56 58 61 63 59 60 62 65 68 71 69 65 62 60 55 55 55
31 34 35 34 41 38 45 44 54 58 54 54 51 50 49 50 54 55 53 53 56 57 58 59 62 61 58 63 65 64 65 69 72 71 71 69 66 60 56 56 54 51 47
37 34 34 42 47 46 49 51 52 56 57 58 61 59 58 59 58 57 60 60 61 61 59 62 62 61 62 66 70 72 74 71 62 61 62 61 59 54 46 42 40 41 42
45 42 45 48 48 50 52 52 55 60 59 59 56 54 59 63 65 63 62 58 56 56 56 62 63 67 70 73 70 64 54 51 49 46 47 47 44 44 46 47 47 46 47
47 53 52 51 52 54 59 60 57 59 59 56 59 62 65 66 67 63 57 55 57 59 62 67 72 63 54 49 46 46 47 48 48 48 50 50 53 54 53 51 50 52 53
46 54 59 63 66 65 63 63 65 64 66 68 67 65 63 59 58 57 58 61 66 67 57 42 41 43 45 47 48 49 51 52 51 53 54 55 54 53 54 54 55 57 57
50 52 53 58 60 59 63 67 68 63 59 59 59 60 61 62 64 64 60 55 49 43 43 43 43 48 50 54 50 52 52 54 56 59 59 59 61 62 60 60 62 61 64
54 53 57 55 56 59 61 65 67 67 69 68 66 63 58 52 48 44 43 46 48 50 50 47 47 49 54 56 57 57 57 61 63 67 66 68 66 65 67 70 72 74 73
40 48 53 54 53 54 56 59 62 62 56 49 45 43 44 46 47 47 50 52 52 53 53 54 56 57 57 60 62 62 62 62 64 67 71 74 73 71 71 72 75 78 79
40 38 39 41 40 39 43 44 44 44 44 43 44 46 47 48 49 52 54 55 56 56 58 59 60 62 63 65 67 68 72 73 74 74 73 74 77 76 78 78 79 81 83
40 42 46 47 47 46 46 48 49 48 46 47 48 49 50 52 54 57 60 62 64 65 66 67 69 69 70 71 73 75 76 79 78 78 81 82 82 84 88 86 89 91 93
47 48 47 48 50 50 50 52 52 54 54 53 55 57 58 60 63 65 66 67 69 70 71 73 75 75 77 77 79 80 83 85 85 85 87 89 91 91 89 91 91 93 96
52 53 53 53 54 54 54 54 55 55 57 58 60 62 64 66 69 70 71 73 76 77 77 78 80 82 82 84 84 85 88 88 88 90 92 95 93 94 97 99 101 103 103

GFSMA_250_spd_093.txt.gz
Wind_Speed
38 35 39 43 41 45 39 38 33 31 29 27 25 24 19 19 15 12 12 12 12 15 19 22 25 25 28 28 24 29 25 26 25 24 24 23 24 26 30 27 28 30 33
37 33 37 40 43 49 44 44 46 43 37 32 29 22 24 23 20 18 15 10 10 14 17 18 20 21 23 21 24 26 31 28 30 29 25 26 26 28 30 33 32 34 39
31 35 33 41 40 51 49 52 49 52 41 37 33 25 29 23 23 20 14 8 7 13 17 18 17 23 16 22 26 26 28 31 31 29 27 26 25 29 30 33 39 40 42
32 38 40 45 50 48 52 55 52 50 40 34 32 35 31 23 25 21 16 11 8 10 16 20 20 20 25 25 31 30 27 26 27 25 27 27 30 33 38 40 40 42 44
32 42 47 48 53 53 53 53 50 47 44 36 34 34 26 25 27 23 18 14 13 16 17 22 19 19 22 26 31 31 30 30 29 32 33 30 33 36 41 43 45 46 48
34 46 53 50 56 55 55 56 51 49 48 42 34 32 33 29 26 21 21 18 15 20 21 19 20 19 21 28 31 32 31 33 33 33 35 38 40 43 46 50 48 50 53
35 46 50 52 55 58 59 52 52 51 50 47 38 36 35 31 29 26 23 21 19 22 24 19 18 18 21 26 31 34 35 34 36 36 39 45 47 48 55 54 52 54 56
31 46 44 52 55 58 54 53 51 48 47 43 41 41 38 35 33 30 27 21 17 23 24 19 22 19 20 21 30 35 39 43 46 48 45 45 50 54 57 55 56 58 55
27 33 43 48 47 61 60 47 52 47 47 43 42 34 41 41 37 33 25 27 25 27 28 24 17 21 22 22 22 33 40 45 46 48 49 50 52 53 56 58 59 59 59
29 32 39 45 41 55 61 49 49 49 49 55 43 38 39 41 40 35 30 23 24 27 31 25 30 25 23 31 34 33 40 43 44 45 45 49 53 58 59 61 61 61 64
35 33 34 40 39 48 51 59 52 51 55 47 46 44 38 37 36 34 28 27 26 30 33 28 30 30 36 38 35 41 41 42 43 45 49 52 56 63 64 61 60 63 66
33 28 27 31 34 36 45 47 53 50 47 49 46 42 43 48 42 38 31 28 28 33 39 40 37 41 41 41 43 44 46 47 51 54 56 58 63 63 60 63 66 68 70
31 29 31 26 29 35 36 49 51 56 50 47 46 45 47 44 42 42 37 36 39 41 43 38 41 44 47 48 50 50 50 53 56 60 63 63 66 63 66 69 71 74 73
32 35 26 32 38 36 37 40 55 55 47 44 46 51 43 41 41 43 42 41 41 44 48 45 47 48 50 54 55 57 58 61 63 61 65 68 69 71 72 70 70 70 67
33 43 38 39 36 39 38 36 40 47 47 49 48 45 45 44 44 50 51 48 49 52 50 55 56 56 57 58 60 60 64 64 65 65 67 71 75 73 72 68 64 62 60
26 41 40 36 35 39 42 37 41 43 44 46 47 45 44 45 47 49 52 55 58 60 60 62 64 63 61 60 61 59 60 63 66 73 76 73 65 57 54 52 50 50 46
29 38 33 31 31 41 37 34 42 41 47 50 51 53 54 57 59 63 63 63 66 69 66 70 65 66 61 59 60 64 69 75 74 64 55 54 54 55 55 54 52 52 55
37 39 31 35 34 39 45 45 49 48 49 54 58 58 60 63 66 67 67 69 71 67 65 64 59 60 61 66 69 73 76 63 54 54 57 60 59 58 56 53 53 55 56
39 41 41 37 40 42 48 51 51 49 54 56 58 67 70 69 70 68 66 67 69 67 60 58 65 67 71 75 78 60 54 56 57 59 59 58 59 59 59 60 60 62 61
40 41 42 44 46 51 50 51 52 54 59 58 60 61 63 65 67 71 71 65 63 64 66 68 72 71 62 58 55 56 57 58 59 60 62 63 64 65 66 65 63 64 64
49 50 47 50 52 53 56 57 60 62 64 64 63 65 68 70 72 72 71 71 70 72 74 69 54 51 55 57 59 61 62 64 66 66 68 70 70 71 71 71 73 74 74
56 55 55 53 54 55 61 67 66 67 69 71 74 77 79 76 74 79 76 74 71 58 53 52 54 56 58 62 65 66 67 68 70 71 72 76 77 77 77 77 77 77 77
47 60 59 60 57 60 58 60 64 69 73 78 79 79 75 68 63 60 59 60 60 59 56 56 58 60 63 67 69 72 74 75 76 77 79 79 80 82 82 82 82 84 84
36 38 43 54 63 66 64 65 70 68 63 60 59 58 57 58 59 58 57 56 56 57 59 63 64 66 69 70 73 76 78 80 82 83 82 81 83 84 83 84 84 85 88
42 42 43 44 47 50 51 52 54 54 55 54 56 58 60 61 61 60 59 62 65 66 68 70 71 72 74 77 78 78 81 82 83 85 86 86 85 86 87 89 90 91 93
49 49 50 49 50 54 56 58 61 61 62 61 61 61 63 65 66 69 69 68 68 68 70 73 77 80 80 79 80 84 85 85 86 86 87 89 91 93 95 98 99 100 102

GFSMA_250_spd_096.txt.gz
Wind_Speed
63 55 45 39 41 44 40 42 45 38 33 35 26 23 24 15 15 15 10 12 12 13 15 18 21 22 25 25 27 28 27 28 24 24 29 30 28 27 24 25 28 29 28
59 50 40 41 44 42 42 44 45 37 40 36 28 25 26 20 15 15 14 16 15 12 13 13 16 19 23 23 25 21 25 25 27 26 27 28 30 27 26 24 28 29 32
54 40 37 41 41 43 44 49 45 38 32 32 36 30 28 22 18 23 21 19 15 10 5 7 13 18 21 21 21 21 22 23 23 25 26 29 26 26 26 26 29 33 37
38 31 38 39 39 39 48 52 43 41 40 42 41 37 34 29 23 23 24 22 16 10 7 6 13 17 20 23 25 23 22 23 25 24 24 26 26 27 29 30 34 39 42
28 32 39 34 36 41 39 53 45 48 45 46 45 37 34 32 31 26 25 23 18 17 11 10 17 15 18 20 26 24 24 26 28 27 29 29 31 35 33 37 40 43 47
25 35 37 33 38 43 44 57 47 54 53 52 48 39 32 33 31 25 23 24 19 20 19 15 20 17 20 19 20 24 23 26 26 29 31 31 30 32 36 41 43 48 52
28 40 36 32 40 43 43 48 52 52 53 53 50 40 34 34 35 25 24 28 22 21 21 25 20 18 20 22 18 20 24 24 28 29 30 34 34 36 43 47 48 49 53
32 38 36 34 48 46 43 47 56 49 58 54 45 43 36 36 38 31 29 27 27 22 25 21 16 15 20 24 23 19 19 28 35 37 37 39 42 46 45 44 46 50 53
33 35 36 37 54 51 48 49 55 56 56 53 46 46 41 39 36 33 33 32 33 27 27 22 19 17 21 18 19 21 25 27 28 32 35 38 40 42 43 45 49 50 55
34 34 34 38 56 56 54 48 55 53 57 54 48 49 48 44 39 37 38 36 34 30 28 24 21 21 24 29 27 31 32 32 35 38 43 45 45 47 49 51 54 60 61
34 32 36 39 56 52 49 48 56 50 57 52 46 48 49 46 39 38 36 40 40 35 33 30 26 22 24 28 33 38 35 37 41 42 43 45 50 50 54 57 61 63 64
31 33 31 28 40 45 44 44 47 52 52 50 44 48 46 46 42 38 35 34 40 41 33 31 28 30 32 38 38 38 43 46 49 49 51 53 54 55 58 62 63 64 66
33 32 30 29 29 35 44 39 44 55 56 43 47 49 52 52 47 48 44 42 47 41 41 33 33 32 33 39 45 45 47 48 51 53 54 58 60 63 65 63 63 66 71
33 33 33 28 25 22 37 27 33 47 59 58 52 50 49 52 53 51 48 45 43 43 45 37 35 38 45 46 50 52 55 59 58 58 58 60 61 60 60 64 68 75 71
32 34 32 35 29 25 30 33 28 35 45 49 48 47 47 53 52 53 48 42 43 45 45 42 50 49 49 53 58 62 61 63 60 57 58 57 57 63 67 71 74 68 60
32 37 32 36 30 33 33 33 28 34 38 45 48 52 46 46 49 52 50 50 45 44 44 45 49 54 57 63 63 65 65 61 56 57 59 61 66 70 74 74 60 58 59
33 36 37 39 28 32 36 39 35 37 38 42 44 50 48 49 54 51 50 47 50 49 54 57 59 62 67 68 69 69 64 60 60 63 67 68 72 71 62 55 58 61 59
32 29 28 45 40 35 31 35 37 38 33 36 39 42 47 53 54 50 50 53 55 55 58 63 69 68 74 76 73 62 62 65 67 71 74 74 58 54 57 57 56 59 61
36 33 29 35 42 35 33 35 41 40 34 37 41 47 48 52 53 55 57 57 59 61 62 70 76 75 75 63 63 67 68 71 74 64 57 54 58 61 60 62 63 64 64
39 38 38 31 31 28 33 37 39 40 42 46 50 51 53 59 63 63 65 66 66 69 71 76 75 74 72 69 71 73 73 61 56 57 60 61 61 63 63 66 67 68 69
43 42 41 37 34 36 36 39 37 43 45 51 53 52 54 57 60 64 67 69 71 73 72 74 79 77 75 74 69 60 55 58 60 63 64 64 66 67 67 69 72 73 75
41 41 43 40 38 39 40 42 45 46 52 55 54 55 56 57 59 61 64 65 69 76 77 68 68 65 60 57 60 63 59 61 63 66 69 70 71 73 75 77 76 76 76
48 46 48 48 45 44 43 45 49 54 55 57 58 60 61 65 67 71 74 76 76 77 79 77 71 62 65 66 60 60 63 67 69 71 73 75 78 79 78 77 79 80 79
50 52 55 53 54 54 52 50 53 57 62 63 65 67 70 72 75 76 81 81 74 71 65 65 63 62 62 63 66 69 71 75 76 76 80 81 81 81 81 83 84 84 85
37 43 45 56 59 50 51 58 63 66 69 67 64 63 68 74 78 78 72 65 62 63 65 67 67 68 70 72 74 76 76 77 78 82 84 85 85 88 90 88 88 88 90
43 41 43 46 48 52 53 54 53 51 52 59 64 67 71 71 69 68 68 67 67 67 69 71 74 75 77 76 77 78 80 82 83 86 88 89 90 90 92 93 94 96 97

GFSMA_250_spd_099.txt.gz
Wind_Speed
64 68 74 70 59 51 42 49 48 39 46 43 35 28 26 26 17 15 12 15 12 14 13 14 12 15 17 20 23 25 25 24 23 26 23 24 28 29 29 30 30 25 26
69 70 78 69 58 50 40 53 51 45 41 38 37 29 29 24 21 16 15 13 14 14 14 13 12 15 17 20 23 23 25 26 24 26 27 23 22 24 26 29 27 26 26
71 77 73 66 52 41 38 54 53 49 43 44 40 32 33 28 24 20 13 17 17 15 15 13 8 7 9 15 19 23 25 25 24 24 25 23 22 25 26 24 26 28 29
76 76 66 55 41 33 42 53 55 53 48 45 39 37 36 28 28 24 17 21 21 20 16 13 11 5 9 12 16 20 24 22 21 20 19 20 22 22 24 26 29 31 33
74 66 56 41 32 32 47 50 53 52 50 43 41 43 39 31 32 29 25 25 23 24 18 16 7 7 10 10 14 16 21 26 18 18 24 25 26 29 30 29 31 32 38
69 56 40 31 29 37 43 46 52 53 51 45 42 38 34 38 36 34 32 26 23 26 21 16 17 11 12 11 13 16 18 26 21 20 21 22 25 33 33 30 30 38 39
59 40 32 32 34 38 40 44 46 54 55 48 46 41 37 35 35 33 34 27 25 26 23 20 24 23 14 16 15 14 17 16 22 23 25 28 29 31 32 35 39 44 46
44 33 30 34 37 33 39 39 41 57 57 53 51 45 42 41 38 34 35 29 23 28 24 24 23 22 19 15 12 15 14 12 15 18 26 33 37 40 40 41 43 45 46
35 29 31 36 37 37 38 41 42 47 58 52 51 51 49 51 48 37 37 34 28 30 28 27 26 27 22 18 15 14 16 18 23 29 31 31 34 37 39 41 43 45 45
33 30 33 38 40 38 38 45 45 38 42 57 54 56 51 50 47 44 39 35 37 35 34 34 29 30 28 18 17 16 18 20 27 32 33 36 40 42 45 47 49 50 51
32 31 35 38 38 42 42 42 45 46 46 56 55 51 55 52 44 46 41 38 38 36 39 36 36 37 34 19 17 19 22 27 29 34 38 43 41 47 51 53 51 53 55
32 35 37 38 38 42 44 49 54 56 48 48 55 50 46 51 48 49 50 41 43 37 34 38 42 38 37 35 29 29 27 33 35 37 41 47 49 53 52 50 50 54 56
35 34 34 36 37 37 44 52 54 60 47 41 48 52 53 53 51 51 49 49 49 41 38 33 38 42 38 39 34 31 37 39 38 44 47 51 58 58 56 51 50 51 53
35 33 34 35 33 32 39 52 52 45 46 46 50 46 44 49 48 52 52 52 52 49 42 40 36 41 41 43 39 39 42 42 47 51 54 62 62 54 52 52 53 59 62
35 33 33 36 33 29 30 37 51 47 43 42 44 52 46 49 48 48 51 49 52 51 48 42 41 42 48 48 44 42 46 51 55 57 59 66 57 52 56 56 62 64 65
35 32 36 35 33 29 30 27 38 39 38 32 39 48 51 47 48 50 50 51 52 53 51 43 41 44 40 40 46 49 53 58 58 62 62 58 54 59 61 65 65 61 54
33 35 37 36 35 35 30 26 29 35 33 27 36 43 52 51 51 48 51 51 46 52 46 46 49 47 48 52 52 55 61 62 64 62 56 59 64 66 65 59 56 51 52
32 38 33 37 36 39 33 31 28 33 32 28 33 42 41 49 50 49 48 45 51 49 50 51 47 51 55 56 57 62 63 65 65 65 63 67 66 66 68 55 51 53 55
36 36 34 37 39 38 36 31 37 35 37 35 33 33 36 43 47 52 49 52 49 49 52 53 53 56 60 60 64 66 68 65 68 66 68 71 69 59 54 54 54 56 59
38 39 36 37 38 35 41 34 32 33 35 34 37 37 38 39 41 48 51 51 52 54 53 57 60 62 64 66 71 71 71 69 75 69 65 56 55 57 56 57 59 61 64
41 39 40 38 40 40 48 47 42 40 38 39 41 37 38 43 49 49 49 49 49 55 60 65 68 67 71 71 73 72 73 76 64 55 55 61 61 59 60 61 65 68 70
43 49 41 41 38 35 36 41 40 35 37 36 43 45 49 49 51 52 54 58 60 61 63 65 68 72 73 72 75 75 69 66 71 68 67 63 63 64 66 68 69 70 72
51 50 48 50 45 43 43 37 35 35 35 40 44 46 50 48 53 58 61 59 61 64 65 66 67 71 74 79 79 82 74 66 70 68 66 67 69 69 71 71 72 75 77
48 55 55 46 48 44 42 44 40 40 41 41 44 50 52 55 55 59 63 63 63 64 68 71 75 78 83 81 73 68 68 70 70 70 72 73 74 75 75 77 81 82 82
42 43 53 51 45 46 46 45 44 45 46 47 50 51 54 56 59 62 65 68 72 74 76 78 81 80 76 69 68 68 70 72 74 75 77 78 79 81 83 85 85 86 88
37 42 44 44 60 56 54 54 52 55 55 56 58 62 63 64 67 68 70 72 72 77 79 80 76 73 71 73 73 74 75 77 78 79 79 81 84 87 89 91 90 91 93

GFSMA_250_spd_102.txt.gz
Wind_Speed
52 54 55 56 61 61 62 67 62 51 45 47 39 39 39 36 29 26 28 18 14 17 14 14 15 15 15 13 15 18 22 27 24 22 23 25 27 27 29 28 29 30 28
55 56 58 61 65 65 70 64 55 49 47 49 41 43 43 36 30 28 26 24 16 18 18 17 17 18 16 16 18 19 22 24 26 26 25 27 28 24 24 25 29 27 28
57 59 60 63 67 72 70 58 50 45 46 50 45 46 42 35 28 28 27 20 14 15 16 18 19 17 15 12 12 15 17 20 22 23 21 24 26 26 23 23 26 26 25
57 60 61 66 70 71 61 51 41 38 46 52 51 49 43 37 31 30 27 24 21 21 17 17 17 16 12 10 11 11 11 17 19 18 17 16 19 21 21 23 22 24 26
57 58 62 68 74 65 52 41 30 37 47 52 53 48 42 36 34 33 31 30 26 23 21 21 21 21 15 13 10 10 11 13 14 16 18 18 21 22 25 27 29 30 31
54 58 61 69 67 51 40 30 31 40 48 51 50 44 40 41 36 38 35 37 31 29 24 24 21 20 15 13 15 14 12 9 9 11 17 18 20 22 25 27 30 32 36
55 59 61 65 57 42 31 27 35 41 46 49 50 46 46 44 42 41 38 29 29 29 26 24 24 25 18 20 13 14 15 11 4 5 9 14 19 24 29 34 37 38 41
60 58 63 59 48 36 27 32 37 39 45 49 48 48 53 45 43 46 41 32 33 32 26 24 25 29 23 23 22 17 14 17 10 10 10 15 21 21 26 28 32 36 40
60 58 58 53 41 33 30 35 35 40 47 53 53 54 46 42 41 43 40 35 31 33 31 25 27 30 28 25 23 19 14 15 15 13 13 17 21 26 30 34 39 43 46
57 61 52 49 36 31 34 35 37 43 49 57 56 57 56 45 44 45 39 40 34 33 35 35 31 30 29 30 28 24 21 20 20 20 18 23 24 27 33 38 42 49 50
61 60 52 42 36 34 36 38 31 38 43 54 62 64 58 53 47 45 46 44 42 42 40 36 35 36 33 31 34 27 26 26 26 22 26 27 29 32 37 40 47 49 46
63 60 50 38 36 36 39 38 42 38 43 45 51 62 58 58 54 50 47 50 48 47 43 40 37 29 31 37 37 36 30 27 27 27 30 32 34 39 44 46 50 48 45
61 57 41 37 38 39 39 43 44 43 45 50 50 52 59 57 54 55 51 50 50 47 47 45 40 38 34 28 34 40 40 40 37 36 34 35 41 44 47 50 49 44 46
64 47 36 39 39 38 41 47 47 50 47 55 58 54 47 55 57 55 58 56 51 50 53 53 48 43 39 36 30 33 39 39 41 37 37 41 45 48 49 47 48 52 55
56 37 36 39 36 37 40 43 41 40 48 59 53 48 43 46 51 57 51 49 51 50 51 49 47 48 46 40 35 36 37 44 37 40 44 47 48 51 54 49 54 59 60
41 35 37 36 36 36 37 35 31 36 46 58 57 53 47 46 44 49 52 54 54 53 53 52 53 48 48 43 42 38 40 41 42 46 50 51 55 55 58 56 56 55 55
36 35 34 36 39 36 34 31 32 34 42 48 51 49 48 47 51 50 48 46 50 54 56 52 52 48 38 39 44 43 45 47 48 51 54 55 59 59 55 60 57 53 56
35 35 36 38 37 35 37 34 32 34 36 41 48 50 41 44 43 51 53 48 50 51 47 50 53 52 44 47 49 49 50 52 54 56 59 62 65 65 60 69 60 53 52
35 34 36 35 34 38 37 34 32 30 27 36 36 32 33 37 39 50 54 54 51 50 49 47 50 47 48 53 53 53 55 56 57 61 65 68 67 67 68 66 55 53 54
35 37 34 33 38 37 37 40 39 35 32 34 38 36 33 35 38 42 46 52 56 57 58 53 49 51 53 54 56 58 61 63 64 65 71 68 71 69 66 56 57 61 60
39 37 33 38 34 37 40 39 42 35 34 33 32 40 41 39 42 37 42 50 52 53 56 51 53 56 57 58 60 62 65 68 68 72 71 71 70 69 67 70 66 65 62
40 39 36 41 40 37 41 43 43 42 41 40 40 40 40 39 40 42 46 49 51 49 48 54 56 58 58 58 61 66 70 70 70 73 74 77 75 69 66 66 65 67 68
45 38 37 44 44 42 42 47 47 50 48 48 45 42 45 44 45 46 47 50 49 52 52 53 58 59 61 64 67 69 67 69 72 75 79 77 66 65 65 65 69 70 70
43 41 39 47 46 44 46 45 51 52 47 47 48 45 43 47 50 51 54 55 54 55 58 60 60 64 67 68 70 68 70 75 77 81 74 67 67 67 69 72 73 72 72
44 36 37 53 45 53 50 46 47 45 45 47 47 43 44 48 50 52 54 56 57 59 59 62 64 66 69 71 72 75 78 79 82 77 72 71 71 74 75 76 75 75 77
42 39 34 48 54 50 54 56 55 51 51 54 52 50 50 52 53 55 54 56 57 61 61 63 66 69 72 75 78 79 81 83 80 75 74 75 77 81 81 80 80 81 81

GFSMA_250_spd_105.txt.gz
Wind_Speed
51 51 45 45 47 48 53 55 56 59 61 59 59 48 39 43 38 35 30 30 23 21 16 17 14 19 18 16 17 18 17 19 23 24 26 27 25 26 29 30 28 26 27
51 48 46 47 48 52 55 59 61 64 63 63 57 46 43 46 43 41 36 32 27 21 20 18 20 17 18 20 20 17 16 19 21 20 21 22 21 23 29 27 26 28 31
53 45 46 47 51 55 56 59 65 67 67 57 46 41 42 47 44 44 41 33 32 27 24 19 22 22 22 22 18 13 13 15 17 17 18 19 21 20 21 22 22 23 24
51 49 47 47 53 53 56 61 65 67 56 45 38 38 44 46 46 42 37 32 29 28 24 23 19 19 20 21 17 13 11 11 13 16 16 16 16 18 13 22 22 21 21
46 43 44 49 51 52 55 62 68 59 47 36 33 40 47 46 47 44 36 29 32 30 23 23 20 18 20 20 20 16 11 15 13 11 8 12 15 16 14 15 18 20 22
43 41 45 47 49 53 58 61 64 52 37 24 28 44 50 47 44 43 38 35 35 33 31 28 22 22 22 22 18 14 17 11 17 15 7 2 4 5 7 12 15 20 24
44 44 45 47 49 54 58 62 59 42 29 22 34 49 46 47 46 45 39 38 37 35 37 30 26 21 24 24 24 16 13 17 16 16 15 6 2 4 6 10 13 17 22
44 43 47 48 51 53 56 60 48 35 25 25 38 51 49 52 43 41 40 39 39 36 28 25 26 24 25 29 26 20 20 20 19 20 18 12 6 4 8 14 19 23 27
41 42 47 49 52 54 57 55 41 31 26 31 40 50 50 49 50 45 45 40 38 38 33 26 29 26 23 24 27 25 20 17 21 22 19 11 7 9 14 17 21 27 30
44 45 45 53 52 57 58 53 40 34 27 32 36 48 50 51 47 44 46 49 42 41 33 29 31 29 30 24 25 29 26 23 24 23 22 19 14 14 16 20 27 29 35
45 44 50 53 57 57 59 53 38 35 33 32 36 47 51 51 43 51 51 47 47 46 40 33 33 33 30 32 26 29 33 32 30 32 30 27 25 22 20 25 30 34 37
46 49 54 56 58 59 58 55 39 39 35 33 39 46 51 53 54 52 46 49 48 44 41 39 36 36 34 32 26 24 33 36 36 33 32 30 31 24 24 30 32 36 41
48 54 56 58 60 61 60 47 40 41 41 34 42 48 56 56 57 56 56 50 49 48 42 43 42 41 38 37 36 34 34 32 39 35 36 35 35 30 31 34 37 39 42
51 57 56 60 61 61 58 42 40 42 42 41 42 43 51 58 60 58 59 57 53 49 47 45 47 45 43 43 43 39 39 33 29 37 40 39 38 36 37 38 41 44 45
54 53 58 60 60 62 44 42 40 41 41 46 46 47 43 57 54 65 61 59 57 53 51 51 47 49 43 45 46 39 40 36 32 35 36 36 37 38 42 44 46 50 50
52 57 61 59 59 49 41 42 39 40 42 48 51 53 52 51 48 50 56 58 54 55 54 54 55 53 49 49 47 46 41 43 42 35 38 38 40 46 47 50 51 52 55
56 58 60 57 55 40 42 43 40 40 42 45 49 51 56 56 57 51 47 51 53 57 53 53 54 55 53 52 51 50 48 40 40 38 43 44 45 49 50 52 57 59 63
56 58 61 57 42 38 43 41 40 40 40 38 38 40 51 59 54 51 45 43 48 52 55 60 52 52 55 54 53 52 48 41 42 41 45 50 51 52 53 57 60 63 62
59 60 57 50 39 39 41 39 38 37 35 33 33 33 40 56 57 54 54 51 51 52 55 54 52 49 53 53 52 51 51 52 46 48 50 53 53 56 59 64 66 65 64
60 61 61 45 40 38 36 38 37 39 35 36 36 39 41 44 50 53 56 55 53 54 58 56 52 52 52 49 52 52 52 52 50 47 53 57 57 61 63 68 69 67 67
59 59 54 42 41 36 34 35 42 40 39 36 35 35 42 44 45 44 44 46 48 49 52 57 58 55 57 55 53 58 60 56 52 55 58 61 62 66 68 68 66 68 70
65 59 56 47 45 37 35 40 43 43 42 39 35 35 38 41 45 44 44 43 43 49 54 55 58 61 60 62 63 60 59 56 59 63 65 65 66 69 71 67 68 71 74
59 56 52 51 47 41 37 45 45 45 47 46 40 42 41 41 46 47 46 48 50 51 48 54 57 58 58 60 58 61 59 62 62 65 66 66 71 72 70 71 73 78 79
62 53 49 52 50 44 41 49 48 48 47 53 52 46 46 45 42 45 49 48 49 53 51 51 55 56 60 61 61 63 67 66 65 66 67 71 73 74 74 78 82 81 78
61 46 50 52 53 46 46 52 52 49 48 54 54 56 53 52 52 50 51 55 53 58 61 58 58 60 61 60 64 67 67 71 70 70 72 73 73 76 83 83 84 83 83
50 48 52 51 51 48 48 56 55 53 49 49 59 60 63 60 58 59 57 57 59 62 64 64 64 65 65 67 68 68 70 70 71 72 73 77 81 83 84 86 90 85 83

GFSMA_250_spd_108.txt.gz
Wind_Speed
43 39 39 38 42 41 40 41 43 44 46 49 50 54 55 55 56 46 37 35 30 29 26 25 17 17 17 22 19 17 18 19 21 21 21 23 22 19 20 24 26 26 27
42 40 40 42 45 43 44 43 44 46 50 52 55 58 59 62 58 47 42 43 40 33 28 32 20 16 18 17 16 19 20 21 19 17 16 19 18 19 20 22 24 21 15
41 41 43 44 46 43 43 44 45 47 50 55 60 62 63 56 45 42 41 39 42 39 37 24 27 16 20 19 20 22 21 15 9 11 14 16 17 19 15 14 11 11 15
42 43 45 44 42 43 43 44 43 47 50 55 59 62 52 39 36 40 45 42 44 38 33 29 33 21 21 22 23 23 17 11 10 13 14 14 14 16 10 9 9 11 10
44 43 44 40 40 39 42 41 43 44 50 54 60 51 37 33 35 46 52 52 45 38 35 34 34 24 24 20 19 19 13 14 11 10 15 11 5 5 6 4 4 9 10
45 44 39 37 36 37 40 40 42 46 49 54 55 39 29 30 41 51 51 47 42 36 34 34 32 28 25 20 17 19 18 15 13 12 14 10 3 4 6 5 3 5 9
44 41 40 43 42 38 41 41 42 46 49 52 49 31 24 33 49 51 43 43 43 41 35 35 33 30 29 22 20 21 23 14 13 14 15 13 6 4 7 6 4 4 11
40 40 44 45 42 41 42 44 42 44 48 51 45 26 25 41 49 47 43 45 44 42 39 39 33 27 27 21 18 21 25 18 16 17 15 18 14 10 9 6 5 8 11
45 42 42 41 41 39 42 44 44 43 44 47 42 25 33 45 44 44 45 46 44 40 41 39 36 30 24 25 17 18 27 24 19 19 18 18 19 14 14 11 9 11 16
50 42 41 38 37 40 41 45 45 45 44 49 42 27 37 46 46 52 49 47 46 42 42 40 34 30 24 26 22 23 23 26 25 23 25 23 22 23 23 16 12 13 15
46 43 42 40 40 38 40 46 46 48 46 49 44 32 35 50 48 52 48 48 44 46 44 41 39 34 31 33 32 25 24 22 29 31 28 29 30 30 31 28 19 18 21
47 45 42 42 42 40 43 48 50 49 49 50 48 36 38 47 55 54 55 48 47 46 47 46 45 39 34 32 35 32 25 22 24 31 34 37 35 35 33 31 25 24 27
42 46 40 42 44 45 48 51 52 53 54 50 43 39 38 40 54 58 56 57 54 50 49 50 50 46 41 38 36 34 31 31 33 28 33 40 36 35 36 35 34 33 33
44 45 45 49 48 46 51 53 53 52 52 52 39 43 38 44 46 55 58 55 53 57 53 51 52 47 44 46 40 39 34 35 36 32 34 37 40 37 39 37 38 39 38
50 51 44 41 44 47 52 52 51 57 55 46 40 45 41 44 50 54 58 56 56 54 51 56 50 48 46 48 48 42 39 40 35 33 32 30 32 35 37 38 38 40 44
48 43 42 41 45 49 49 51 54 57 57 41 39 44 46 44 44 55 60 59 60 58 56 52 50 52 52 50 50 46 46 44 38 38 34 36 38 31 38 40 40 42 44
48 40 40 43 49 50 50 52 53 55 42 36 41 45 46 47 48 48 52 64 62 58 55 59 58 57 55 55 53 51 51 48 44 44 42 44 43 40 41 41 44 46 49
40 37 39 51 52 53 52 54 52 45 36 40 43 44 47 49 54 57 53 53 56 61 63 65 63 60 60 57 58 55 54 51 52 51 49 45 41 42 43 48 50 50 52
38 39 49 54 55 56 55 51 51 42 39 43 46 46 47 49 51 57 58 56 57 52 49 53 58 60 61 59 56 56 53 52 52 51 53 53 51 51 52 53 52 53 54
38 45 53 56 57 57 54 52 53 44 42 45 46 47 47 45 50 54 55 56 52 53 49 50 49 53 58 63 61 58 60 59 52 53 52 51 52 54 58 59 54 55 55
48 53 54 54 57 58 58 54 56 46 45 44 46 45 42 39 41 41 47 51 55 57 55 55 54 53 57 61 61 62 60 58 58 57 55 55 57 59 59 59 59 58 59
58 57 56 60 63 63 60 63 58 48 46 43 43 44 40 37 36 38 47 54 57 55 55 60 61 65 60 59 59 56 58 61 55 58 60 62 63 63 64 64 62 61 65
54 58 60 63 65 66 67 65 57 49 45 41 46 45 40 41 40 44 49 45 48 51 52 52 51 49 52 52 52 56 61 64 65 66 66 67 69 68 66 63 64 67 68
60 61 66 67 69 72 68 65 56 49 44 43 50 46 45 44 39 40 43 46 50 51 47 50 55 53 52 55 59 63 63 62 63 66 67 68 67 65 68 70 69 70 71
62 68 69 70 69 70 71 61 52 51 46 46 55 53 52 54 47 47 45 43 45 52 54 54 59 56 58 64 65 60 61 64 65 67 69 70 69 71 73 73 74 75 75
70 70 70 71 71 71 68 58 53 53 50 48 57 58 60 60 62 56 56 56 52 51 56 59 60 62 63 58 65 69 67 65 67 69 70 71 70 73 75 76 77 76 75

GFSMA_250_spd_111.txt.gz
Wind_Speed
46 44 42 41 43 44 37 35 35 35 36 38 39 41 42 44 46 47 47 46 44 32 35 27 30 27 20 15 18 18 20 19 16 20 23 23 22 21 16 15 14 20 21
47 47 44 41 40 38 37 35 37 37 39 38 40 43 44 47 49 55 54 54 51 42 39 33 34 32 22 16 18 16 17 19 19 21 24 20 18 17 15 15 15 14 17
45 43 45 44 40 39 35 35 38 35 40 38 40 44 46 49 53 58 56 51 48 44 47 32 32 32 27 17 17 16 17 20 20 19 18 14 15 15 13 8 5 5 4
49 44 41 44 39 38 37 38 36 37 38 36 39 44 46 51 54 50 42 38 39 44 52 39 44 33 27 23 20 22 21 22 20 19 14 13 15 16 9 7 2 3 5
50 46 44 45 42 39 41 33 35 38 36 36 39 40 46 51 54 39 33 31 36 45 41 42 40 36 30 30 20 24 22 22 20 14 13 13 11 11 9 9 8 7 7
50 47 44 44 42 43 38 31 34 37 36 34 34 39 44 51 42 30 25 32 38 36 41 41 36 36 37 31 27 24 20 19 19 18 12 11 11 9 13 15 14 12 9
53 48 45 46 44 43 36 36 38 41 37 35 33 38 43 48 34 23 27 44 41 50 53 44 34 39 40 31 30 27 21 20 20 21 19 11 12 9 12 17 17 15 10
58 52 48 48 45 41 38 40 44 42 40 36 33 35 40 43 35 22 42 55 56 55 52 36 34 42 42 33 32 30 25 19 19 22 17 15 17 15 15 18 18 16 13
64 54 51 46 44 40 39 41 44 40 40 35 32 35 37 39 34 23 49 57 58 53 48 45 44 43 42 36 28 25 25 24 19 22 23 20 22 20 20 18 18 16 15
64 53 51 47 36 39 47 46 41 37 38 36 34 35 33 35 30 32 42 55 56 51 48 53 52 48 43 35 29 26 21 23 18 25 25 26 25 26 25 26 26 20 19
65 52 52 53 47 45 46 43 40 37 39 36 37 35 32 35 31 38 46 52 50 49 51 50 49 46 43 33 34 32 30 20 24 17 26 32 31 31 29 30 28 24 26
62 52 52 50 46 44 43 43 41 38 39 38 40 38 35 36 37 41 50 54 54 53 55 50 47 47 46 43 41 37 36 28 26 25 21 21 29 35 36 35 36 38 36
58 52 52 52 45 43 44 42 39 40 40 40 43 40 41 41 41 43 52 57 57 56 56 56 48 47 46 46 42 42 40 38 32 27 27 27 26 27 38 40 40 41 38
57 53 46 48 40 43 44 41 42 42 43 42 41 41 44 46 44 46 50 61 64 59 57 57 55 53 53 47 42 40 40 45 42 36 32 31 28 27 31 40 41 42 43
52 47 47 44 41 47 44 43 45 41 43 43 44 45 50 51 42 46 53 57 63 64 58 60 56 53 53 50 47 46 45 47 48 41 36 38 37 29 30 33 40 41 41
49 47 50 47 49 46 48 46 44 44 43 46 47 48 54 49 38 46 51 51 62 61 59 62 61 58 56 54 53 52 50 50 51 48 43 40 39 35 36 35 34 37 41
50 52 51 50 51 49 48 47 40 43 45 48 50 51 52 41 39 48 48 53 55 59 62 62 62 61 57 56 54 54 51 50 51 51 48 46 44 40 41 42 42 38 43
47 51 52 55 54 52 47 44 43 46 50 50 52 47 47 37 41 46 49 48 57 55 60 63 59 58 55 55 54 54 55 53 53 54 53 51 51 49 48 48 52 52 50
47 48 49 52 56 54 52 45 44 50 52 50 49 48 43 38 42 47 50 50 49 51 55 57 60 62 62 59 56 58 60 57 59 57 55 56 52 51 52 55 54 52 53
45 47 50 48 46 49 46 41 48 55 54 54 50 47 45 41 43 46 52 53 52 54 57 56 59 62 64 61 63 61 63 61 64 62 58 56 57 54 53 54 56 58 59
49 51 52 56 56 50 44 47 51 54 57 54 53 51 53 44 48 50 50 55 55 60 64 64 59 65 70 68 63 64 58 61 61 64 66 67 65 63 64 62 63 63 63
50 51 55 54 55 53 49 54 58 58 57 56 58 53 54 48 48 49 51 52 54 55 57 60 63 62 66 61 57 60 60 58 56 60 64 67 66 62 62 64 66 66 65
49 54 55 55 53 55 57 58 60 60 59 61 60 59 54 51 50 49 51 50 46 46 46 48 59 59 62 58 57 59 59 63 62 65 61 62 64 70 70 66 67 67 67
54 57 52 59 58 57 58 61 60 62 62 65 64 60 55 52 51 49 49 46 44 45 44 48 49 53 57 62 61 65 61 65 65 66 62 61 63 65 69 69 71 72 74
60 59 60 59 58 59 59 61 62 66 66 69 68 61 55 53 51 49 49 51 50 47 51 53 54 55 58 64 66 65 62 63 63 64 64 65 68 69 70 70 69 71 72
63 65 64 61 61 64 66 67 67 71 73 74 71 63 51 55 51 51 55 56 55 53 52 53 56 53 57 58 55 58 67 71 68 67 64 67 70 70 70 73 73 72 73

GFSMA_250_spd_114.txt.gz
Wind_Speed
53 48 44 41 40 45 42 47 48 47 47 37 37 37 34 34 35 37 39 39 40 37 32 30 26 29 31 33 25 21 21 20 19 22 20 20 23 22 21 20 15 14 16
53 50 43 42 42 41 42 40 46 49 45 37 36 36 35 34 35 38 42 43 47 47 44 39 30 30 35 34 30 23 22 22 20 22 22 22 24 24 19 13 12 15 16
51 51 46 44 44 41 40 43 41 42 41 39 36 35 35 35 35 40 43 45 51 55 53 45 36 28 47 37 34 28 21 22 21 23 22 22 23 23 17 15 9 9 7
53 51 48 44 43 41 40 42 41 42 41 38 37 38 36 37 39 43 44 50 54 46 40 40 38 39 39 36 35 33 21 22 21 22 23 22 22 20 19 14 10 8 9
52 52 49 46 45 43 42 41 41 42 40 35 38 42 36 38 41 40 44 50 47 36 33 37 50 35 39 43 37 36 26 23 26 24 25 23 19 18 17 14 13 16 15
54 52 51 47 43 40 42 43 40 41 39 35 38 40 38 38 37 39 44 48 39 27 29 42 54 47 41 44 39 42 31 22 25 23 25 19 16 16 15 17 18 19 17
62 50 52 52 44 40 41 41 41 43 38 36 40 40 39 38 37 39 41 43 28 25 32 51 59 46 43 43 40 44 35 25 27 23 23 21 17 17 17 21 23 21 21
62 63 54 55 53 43 39 43 44 42 41 44 42 40 41 38 35 37 38 37 19 29 36 51 61 46 46 45 44 44 43 33 31 24 21 21 23 21 20 19 23 24 25
65 60 58 55 56 47 40 43 43 40 44 45 38 41 41 38 33 34 36 30 24 30 42 47 53 51 51 43 42 48 41 27 32 29 23 20 25 24 25 25 25 28 26
65 62 60 56 58 50 44 47 45 41 46 42 40 41 38 37 31 33 35 21 35 46 45 53 54 53 46 42 47 46 39 32 28 24 24 18 22 27 29 30 28 31 30
65 68 58 54 56 51 47 45 40 41 46 44 44 42 36 35 32 31 31 16 32 46 55 53 59 58 41 38 49 49 44 38 32 24 18 16 23 32 32 32 34 33 35
67 70 59 54 56 51 45 46 46 47 49 44 44 42 36 33 33 30 29 28 30 36 61 58 58 56 52 53 50 50 44 40 38 36 30 26 21 21 25 36 36 39 40
66 67 58 56 58 51 46 49 50 54 50 45 44 42 36 35 34 33 33 33 35 36 55 68 63 58 57 58 56 53 42 43 41 39 36 32 30 28 27 27 28 37 44
72 66 61 57 58 49 47 44 49 47 46 42 41 41 39 39 34 37 38 37 44 43 48 66 66 60 61 62 64 54 48 48 47 46 43 35 35 34 34 37 32 26 37
70 63 61 56 55 50 46 44 39 39 44 41 44 44 41 40 38 42 41 47 50 48 53 61 64 65 63 60 59 56 55 53 48 45 48 46 43 41 38 38 37 35 37
65 63 57 55 55 52 48 47 46 41 46 47 46 44 42 42 42 45 47 51 49 48 58 63 66 68 67 63 59 59 57 54 48 48 45 46 47 48 47 43 42 41 36
58 58 54 53 56 56 52 50 49 40 45 51 46 48 45 44 42 43 48 52 42 47 59 60 68 70 69 68 66 61 62 57 55 50 51 52 51 55 53 53 46 44 45
54 56 53 53 51 55 51 49 48 48 53 52 51 50 47 48 44 42 44 42 37 47 56 52 62 72 71 66 63 65 65 58 57 58 55 55 57 55 54 55 55 49 48
47 55 51 48 46 51 50 49 46 52 49 53 53 54 53 49 46 44 40 36 37 49 50 58 56 66 64 73 68 65 64 63 61 61 60 57 55 56 56 57 56 55 53
43 47 49 50 44 51 54 56 54 59 61 59 57 59 54 49 48 47 41 40 38 47 54 55 59 62 63 67 69 70 71 70 65 62 59 54 57 59 61 59 59 56 55
48 47 49 46 42 48 52 56 59 60 62 60 60 58 51 52 54 48 46 43 42 46 53 58 55 58 59 59 63 65 67 66 64 59 60 58 64 64 65 65 64 61 60
48 46 44 45 46 53 58 58 62 65 64 63 59 54 56 58 55 52 50 49 50 47 54 54 56 55 55 57 59 60 62 59 63 66 64 64 66 70 61 61 63 63 64
46 47 49 52 51 55 59 62 64 65 65 63 60 58 61 58 59 54 55 56 56 50 53 57 54 59 63 64 68 66 64 68 70 66 68 69 69 70 69 65 62 63 66
52 54 52 51 55 57 61 64 65 65 64 65 62 62 62 60 59 57 57 58 57 52 52 53 55 54 57 61 65 72 74 72 72 74 75 69 71 71 70 69 68 69 69
44 49 53 59 60 59 63 63 65 68 66 63 61 62 64 62 61 57 61 63 56 51 51 51 52 50 50 46 46 55 66 70 72 75 74 71 69 69 71 70 72 69 68
49 51 59 62 65 66 64 65 66 68 69 64 64 64 65 63 65 64 65 67 56 51 53 52 54 52 47 48 51 54 54 60 67 68 65 68 70 70 74 75 68 67 67

GFSMA_250_spd_117.txt.gz
Wind_Speed
48 44 46 47 51 49 45 44 42 38 42 47 44 47 44 40 40 37 35 34 33 34 36 36 31 33 30 24 28 27 29 24 21 23 21 23 23 22 24 24 24 24 19
61 43 44 44 48 48 47 43 41 40 39 40 47 50 44 39 38 39 36 31 35 36 36 40 35 37 32 29 32 29 33 31 23 26 24 22 22 23 25 26 22 18 20
65 56 45 44 46 47 47 43 40 38 39 40 39 42 39 40 39 40 36 32 35 40 43 45 43 41 28 34 34 35 33 31 27 26 24 23 25 25 25 25 19 19 15
66 68 57 44 46 46 46 45 42 39 40 41 40 38 38 39 40 40 37 36 39 44 47 45 55 49 49 37 35 35 41 38 30 25 22 20 22 23 24 22 20 16 13
69 71 63 48 48 48 49 45 42 42 41 40 37 37 38 41 42 40 37 39 41 48 46 51 46 38 45 45 44 44 38 34 31 25 24 24 24 23 23 21 19 18 18
76 72 61 60 48 50 49 48 47 44 43 38 37 36 39 42 41 39 38 40 44 47 48 51 36 34 49 48 39 41 39 40 32 29 27 26 25 24 23 21 18 20 22
72 69 64 56 57 53 52 51 45 44 44 41 32 36 37 40 40 38 40 40 45 46 46 37 28 39 58 49 34 43 41 38 38 35 29 23 23 24 21 20 22 24 24
80 74 73 64 62 52 54 51 46 43 40 40 36 36 37 42 44 40 41 38 42 40 43 28 26 45 57 41 32 34 37 37 36 34 33 31 21 18 21 23 22 24 28
82 78 76 65 57 53 56 53 51 43 38 36 39 39 40 49 44 38 42 38 38 37 37 22 27 47 53 40 30 35 39 39 39 40 34 34 28 23 22 24 24 25 26
80 77 75 74 64 58 55 59 55 50 41 40 37 36 44 44 42 40 40 36 34 34 32 21 31 46 58 45 42 37 41 43 44 45 37 31 33 23 18 22 27 30 32
81 83 75 74 68 61 56 62 59 54 45 41 40 39 44 43 43 42 37 36 30 28 29 21 34 48 61 47 44 47 43 47 45 47 34 28 24 20 24 19 25 31 32
84 81 81 78 72 62 57 60 61 57 49 42 39 38 43 44 45 42 37 34 30 31 25 36 36 45 62 55 49 51 46 47 46 43 40 33 30 28 23 20 17 21 33
84 77 77 81 77 67 58 60 62 56 50 44 40 37 45 47 44 41 38 35 32 33 26 27 26 48 56 67 58 52 49 44 50 49 50 43 39 36 29 30 27 29 26
85 85 79 77 79 62 57 57 61 53 49 45 43 52 54 52 45 40 38 35 35 36 35 36 36 35 59 59 66 63 53 52 54 56 55 48 47 44 38 35 36 37 37
80 82 86 82 77 61 64 58 60 49 48 47 46 40 48 49 44 42 39 38 37 39 41 44 46 45 43 66 68 71 66 61 62 62 53 50 48 49 46 42 44 43 40
61 69 79 72 71 63 65 59 60 49 49 47 48 42 42 46 43 43 42 43 42 44 44 51 55 54 50 64 73 73 75 65 67 66 58 57 53 52 52 49 48 49 43
52 61 66 62 60 69 63 60 60 57 51 50 52 44 41 43 44 43 44 47 47 47 49 54 54 53 48 58 74 77 70 73 68 69 68 62 60 56 55 53 50 51 51
48 55 52 54 64 61 57 64 60 56 53 53 49 48 44 43 45 45 49 49 49 50 52 48 45 42 44 56 64 67 77 76 69 68 66 65 61 59 55 53 55 53 53
33 44 49 48 59 55 58 62 58 55 56 49 50 49 43 49 51 53 52 51 50 53 54 43 42 39 43 50 60 63 69 75 74 69 65 66 65 60 60 59 57 57 58
41 42 49 50 60 58 63 61 58 55 53 54 53 51 48 52 56 58 59 57 56 56 55 44 35 37 43 53 56 61 68 73 75 76 71 70 66 64 63 62 62 64 59
36 42 43 48 50 53 56 53 53 57 55 57 58 59 55 58 62 61 61 59 59 58 56 48 40 35 39 54 61 61 57 71 76 72 72 70 69 67 66 68 66 64 60
36 40 38 39 44 42 48 50 50 45 49 51 55 60 63 64 64 66 64 61 60 61 62 53 50 46 43 49 63 66 65 59 64 72 79 77 72 71 72 69 67 66 61
38 39 39 45 49 51 48 47 44 46 52 56 62 69 71 71 70 68 65 64 67 64 58 54 55 51 46 50 56 66 67 66 64 65 71 76 77 76 71 68 62 61 67
28 32 36 43 48 50 50 51 52 53 56 62 67 72 73 72 73 70 66 67 64 67 59 55 56 54 49 50 53 60 63 63 60 58 60 64 66 67 67 65 67 71 67
29 33 35 44 51 55 58 59 60 61 65 66 71 74 73 73 72 70 67 67 69 60 58 58 57 55 52 51 51 60 61 60 61 64 66 67 67 68 70 68 68 69 74
37 42 41 45 52 60 61 58 61 63 70 72 74 73 68 69 71 72 70 70 64 64 61 59 59 59 57 51 51 56 58 61 61 64 69 78 77 75 70 74 76 75 76

GFSMA_250_spd_120.txt.gz
Wind_Speed
61 53 54 48 52 49 38 39 40 42 43 41 41 43 43 42 40 42 37 37 34 31 32 31 32 28 28 31 32 32 30 29 24 27 23 20 20 23 20 20 22 23 24
62 55 57 55 53 51 43 40 42 41 43 43 39 38 39 40 42 41 38 34 34 34 33 33 32 33 28 33 35 37 34 34 28 30 26 23 24 23 21 21 24 25 26
62 59 59 57 55 53 49 43 42 43 43 43 40 39 39 36 35 38 39 38 35 36 34 35 36 36 33 36 41 39 38 32 34 29 26 24 25 22 23 24 26 25 21
64 64 59 57 56 55 55 48 43 43 46 45 41 38 38 41 37 33 27 36 36 36 36 37 40 42 42 44 49 45 44 44 38 30 27 26 22 18 18 20 22 22 20
70 70 64 63 57 56 55 52 46 45 47 48 45 42 41 39 37 33 30 35 37 38 39 40 42 43 45 51 59 53 54 46 48 33 33 30 24 18 20 20 21 22 20
71 67 68 68 63 53 57 56 50 47 48 50 48 43 40 37 36 34 30 38 36 37 41 43 43 45 49 58 50 43 49 42 35 33 34 29 21 22 21 21 21 19 18
73 73 72 69 67 59 54 57 57 48 51 50 50 48 41 35 37 36 32 36 37 37 37 43 44 47 53 48 38 45 45 44 38 38 35 27 19 18 18 18 21 17 19
72 75 74 70 69 64 64 61 60 59 47 49 49 46 45 38 39 33 37 37 39 38 39 43 43 46 47 34 35 44 43 43 39 37 35 33 36 25 18 21 22 19 19
76 78 78 78 78 74 69 67 61 66 52 50 51 48 47 42 36 33 40 40 42 40 39 39 38 44 38 28 43 44 34 43 41 39 35 33 31 30 27 30 31 23 21
83 81 79 77 78 75 68 62 65 62 52 51 54 50 47 43 35 31 40 41 38 39 38 34 35 32 32 25 51 40 36 37 37 37 35 36 34 32 29 34 28 30 24
90 80 80 80 79 72 66 60 70 58 56 54 58 54 47 43 36 35 38 36 37 37 36 33 33 25 25 26 39 41 35 31 35 37 38 40 39 32 32 35 32 20 25
86 82 78 78 73 71 57 50 84 70 63 54 58 57 50 45 39 40 39 40 40 39 35 34 32 26 20 21 44 47 42 41 37 39 43 43 40 38 32 37 33 23 23
83 83 73 73 71 68 73 73 68 64 66 60 55 60 52 51 46 39 39 38 42 41 34 33 33 25 26 27 26 53 53 47 46 41 41 47 43 39 40 39 37 30 31
81 81 78 66 70 67 69 73 79 71 75 58 55 58 56 52 49 48 44 40 41 37 37 36 33 29 28 28 28 39 59 57 55 47 47 51 51 44 44 42 41 39 37
73 74 75 62 64 68 73 75 71 71 72 66 58 59 58 55 51 47 41 39 42 40 39 38 37 36 35 36 38 38 54 71 62 60 57 55 52 53 51 52 46 48 45
52 60 62 54 43 57 76 74 79 65 64 57 55 60 57 57 56 52 47 45 44 40 39 41 42 41 41 44 45 48 51 57 72 76 67 61 56 54 58 56 54 50 50
43 46 53 54 58 69 79 91 83 77 58 58 53 57 56 57 51 49 47 45 39 43 39 44 46 47 44 50 51 53 59 59 64 75 75 74 64 60 61 62 57 54 53
36 44 59 60 59 66 79 91 83 73 64 57 58 61 60 56 51 54 49 49 40 45 43 48 49 48 49 49 53 54 46 51 63 72 77 72 73 69 67 64 64 59 58
37 47 58 53 48 58 72 71 63 58 61 64 61 61 59 55 49 55 55 49 48 49 48 51 57 51 47 51 53 54 45 36 55 65 74 76 75 77 73 70 69 67 66
43 48 57 65 67 64 51 47 46 55 62 66 61 58 59 56 52 51 55 57 53 50 51 56 56 55 53 51 53 50 46 35 37 57 66 74 76 76 78 74 68 69 65
44 41 45 47 49 43 39 37 47 56 60 56 59 60 60 57 52 53 57 53 54 56 56 58 59 56 56 54 55 51 46 45 36 45 60 64 72 76 76 77 73 70 68
44 40 36 38 39 39 33 34 41 54 50 52 60 59 60 56 55 59 59 63 60 61 59 59 61 57 57 58 57 55 51 49 49 46 56 63 66 66 77 79 79 72 70
31 35 40 38 36 34 34 34 39 45 49 53 59 65 56 54 61 62 61 63 67 65 63 62 61 61 58 60 60 57 55 55 52 50 51 59 65 65 71 74 76 78 78
32 38 44 43 44 44 43 38 55 50 49 57 60 58 57 59 65 66 67 70 76 71 69 63 66 65 62 62 62 55 56 57 50 51 52 53 60 65 65 64 74 78 77
29 32 36 39 41 40 44 50 51 49 37 56 61 58 57 66 66 70 72 76 74 69 69 69 72 70 68 66 63 60 61 59 53 50 50 53 55 59 66 69 66 69 75
33 36 37 39 38 36 38 47 50 54 60 64 66 66 70 68 67 74 78 79 77 75 74 75 73 73 70 70 65 64 63 61 57 50 50 51 57 59 62 63 63 65 67

GFSMA_250_spd_123.txt.gz
Wind_Speed
54 48 47 50 50 49 47 50 50 47 37 36 36 35 38 39 40 37 34 33 34 33 32 32 29 28 36 35 35 35 34 30 30 30 29 27 21 23 23 21 20 21 21
55 55 49 52 55 55 50 51 50 44 41 39 36 35 37 40 41 40 40 38 36 34 34 32 33 32 32 36 35 33 34 33 33 34 33 29 19 23 24 22 21 23 22
59 63 56 58 61 58 53 53 49 52 48 38 36 38 39 39 39 40 40 37 37 35 36 35 33 34 34 36 34 36 36 32 34 36 32 28 22 23 23 23 21 23 24
61 67 67 68 64 60 55 51 51 51 49 39 36 38 40 39 38 38 41 39 34 31 30 35 36 35 35 38 41 40 40 40 43 37 42 39 26 24 23 24 18 18 19
62 71 73 76 71 60 56 53 52 53 49 48 45 38 39 41 40 38 40 40 35 31 32 31 36 36 38 40 44 44 44 48 52 51 52 45 35 29 24 23 17 17 18
59 57 73 70 68 66 64 61 53 53 49 49 44 43 43 42 41 42 38 38 38 36 37 31 34 37 39 43 45 46 48 56 60 55 46 39 40 30 23 22 19 18 17
71 77 79 62 63 72 74 70 60 52 56 56 49 45 44 48 47 42 36 36 36 37 39 33 35 36 39 40 42 43 54 45 37 35 37 39 41 26 20 20 19 16 19
79 77 75 52 71 73 72 73 65 60 57 56 56 51 50 45 52 45 39 40 37 38 38 36 37 35 40 42 39 45 35 23 26 32 38 40 37 27 26 16 19 21 24
76 79 76 69 78 76 70 76 67 63 62 54 57 56 49 48 48 48 41 40 42 39 36 37 42 38 39 38 40 37 28 27 36 40 41 42 34 28 31 32 32 26 26
86 86 77 75 70 72 73 73 68 61 55 54 49 52 50 48 46 48 43 39 45 40 36 39 40 38 37 31 36 32 19 37 35 39 40 40 39 30 31 33 33 30 27
94 93 88 83 78 75 72 67 72 57 46 47 50 51 58 51 43 50 48 40 45 44 38 34 36 38 35 29 30 15 29 33 31 32 42 40 39 35 34 35 34 34 30
97 92 92 86 84 84 77 73 65 44 37 52 61 58 63 60 52 51 51 46 42 47 35 31 36 38 35 31 26 16 40 36 29 36 39 40 43 40 39 38 37 36 33
97 97 97 95 91 85 80 76 70 41 37 68 82 70 74 64 53 48 53 52 45 45 43 37 38 38 36 32 25 24 24 39 38 36 38 40 41 40 41 44 40 41 33
101 99 97 98 92 74 65 63 64 58 62 78 74 54 64 62 59 53 55 55 52 46 45 41 40 37 36 32 30 25 26 31 41 42 46 45 45 45 43 45 44 43 42
94 89 85 79 77 72 63 59 64 58 67 69 69 34 65 76 76 65 56 56 56 51 45 42 41 41 37 35 33 32 32 26 42 53 48 55 55 55 51 50 49 50 49
77 78 78 74 71 71 63 64 57 58 57 62 62 73 82 80 78 62 58 59 57 53 52 51 46 42 43 42 40 35 35 36 36 36 42 46 61 67 65 59 55 55 54
60 61 64 63 64 67 62 67 62 56 51 58 66 73 74 70 58 61 61 61 57 55 53 50 46 44 47 48 46 42 40 41 41 43 44 50 54 63 73 69 61 60 61
42 46 48 56 59 63 56 76 67 54 51 65 71 75 74 69 52 61 60 59 64 54 57 52 52 49 50 50 48 43 43 43 43 45 48 50 51 53 66 70 70 66 65
33 40 42 49 55 61 68 79 70 65 58 66 77 74 71 67 64 58 64 60 64 57 62 59 55 52 50 52 47 48 49 49 45 46 47 46 46 43 64 71 70 74 72
27 31 35 42 56 58 75 80 80 68 53 50 50 53 59 63 61 60 62 67 64 58 59 64 64 60 60 55 48 48 51 56 50 47 48 46 44 37 43 62 72 73 74
21 24 30 39 46 51 72 72 66 49 44 47 53 53 56 62 58 62 64 67 67 62 65 65 66 65 63 62 57 52 51 55 51 48 48 48 48 41 40 45 59 71 74
20 25 27 37 48 58 65 66 45 35 41 46 52 56 52 51 57 70 63 68 65 70 71 69 72 70 66 64 62 57 53 56 49 52 51 51 49 48 49 48 50 58 70
23 30 34 44 55 60 66 62 51 43 41 36 49 51 63 58 63 66 65 72 67 67 72 71 72 75 74 72 68 66 57 56 56 55 52 53 54 51 51 50 52 59 63
31 33 36 42 50 52 54 52 47 45 43 48 54 56 57 57 55 63 70 76 67 69 68 71 77 77 77 71 69 63 61 59 60 60 55 52 59 57 52 54 52 55 64
33 36 43 49 56 60 51 61 58 45 46 37 56 50 54 55 54 58 68 75 72 75 80 80 80 79 78 72 69 67 67 63 61 65 64 58 59 62 56 53 53 53 59
25 35 39 46 61 52 47 55 55 50 50 50 48 45 52 56 49 50 66 73 76 80 81 83 83 82 80 76 73 73 71 69 67 67 69 63 60 63 60 56 52 53 54

GFSMA_250_spd_126.txt.gz
Wind_Speed
45 46 52 52 53 50 47 46 45 47 48 44 45 38 35 35 37 36 33 35 35 35 35 33 32 31 28 29 31 33 34 32 32 35 31 31 27 26 25 21 20 22 23
49 51 49 49 47 49 50 51 51 51 49 46 45 39 37 34 33 37 36 34 35 39 37 36 35 35 34 31 34 34 38 39 35 33 32 34 32 27 25 23 20 23 23
42 62 55 45 54 54 51 58 55 53 47 48 42 40 34 32 34 36 37 36 36 37 39 42 38 40 38 34 33 33 38 38 37 34 35 31 34 31 25 26 23 22 23
53 52 60 51 53 51 58 61 57 59 49 52 51 49 39 34 34 32 35 38 36 35 39 39 39 43 44 37 34 35 34 37 40 38 39 38 37 41 32 28 26 22 23
56 53 48 61 59 62 55 66 61 62 52 51 60 48 45 37 32 34 35 38 37 37 39 40 37 38 44 43 34 37 39 41 41 43 44 42 44 44 42 34 32 26 23
58 28 38 50 65 59 56 66 63 71 67 51 55 54 51 44 34 36 34 37 38 38 38 38 40 40 38 36 35 39 39 41 44 49 50 49 50 47 49 38 37 31 24
62 55 60 74 52 50 60 67 63 62 62 54 49 55 57 52 44 40 32 32 38 39 37 36 40 41 42 35 35 38 39 44 46 51 55 54 49 48 53 40 31 30 25
69 67 59 67 67 60 60 49 58 62 54 47 54 66 59 47 45 41 32 35 36 40 41 39 42 40 42 42 37 38 39 43 43 47 44 37 31 35 42 35 30 28 27
81 76 78 76 60 63 48 57 62 69 65 57 63 62 61 55 49 41 36 35 41 39 40 42 43 42 42 40 37 38 39 38 44 39 33 27 31 34 39 33 28 28 25
87 86 83 78 73 75 74 73 72 75 64 55 50 46 43 50 48 44 43 39 41 44 40 41 44 42 40 43 38 39 39 38 37 29 26 23 34 38 36 33 25 34 33
92 93 89 88 83 82 81 78 77 73 61 61 53 38 33 39 43 45 53 54 47 41 46 39 42 43 40 39 34 37 39 36 33 24 27 27 38 38 39 31 33 36 39
96 95 97 95 93 90 89 83 75 72 67 56 50 35 36 40 62 51 56 65 55 45 51 46 41 45 43 40 36 37 36 33 29 26 25 25 34 38 39 38 36 36 38
99 98 98 96 94 93 90 87 78 72 71 46 35 60 53 70 67 78 61 56 57 48 44 51 43 46 43 41 40 37 35 33 32 29 33 27 31 38 43 40 40 39 43
97 102 102 99 97 96 93 89 79 74 70 65 65 44 58 44 60 62 67 55 58 52 50 53 50 49 47 45 44 41 37 33 31 27 36 30 36 39 43 49 49 48 46
86 93 100 104 104 104 99 94 85 77 66 59 70 68 79 64 64 65 57 55 56 60 58 62 50 53 50 49 46 43 41 37 31 30 34 43 41 43 46 44 46 49 52
79 84 89 93 95 95 97 96 90 83 76 73 74 76 82 66 60 71 57 60 64 58 55 61 63 58 56 55 49 43 40 41 38 37 33 34 40 38 37 43 49 53 55
70 76 79 82 84 85 89 88 82 84 80 79 76 67 77 70 69 60 60 65 66 61 58 63 60 59 64 61 58 52 49 46 44 42 40 37 34 40 39 37 48 52 57
55 59 64 66 69 72 75 77 78 75 77 76 75 71 80 71 66 64 55 57 62 68 68 61 62 63 68 65 62 60 59 55 46 47 47 46 42 42 40 44 44 48 58
42 46 51 56 60 64 66 68 73 74 77 86 83 83 80 61 70 76 77 72 71 72 74 69 60 64 67 69 67 63 64 57 50 50 49 47 47 46 46 45 45 46 42
30 34 41 44 50 55 60 64 69 75 78 87 81 78 73 74 65 76 77 78 71 76 75 75 70 69 69 70 70 66 64 61 56 53 50 49 48 51 51 47 46 40 41
27 25 28 32 39 44 49 57 61 69 77 86 81 84 86 75 62 69 70 67 67 70 72 71 72 70 76 72 71 70 69 67 62 56 57 53 50 48 52 51 47 44 41
23 23 22 28 32 38 43 50 53 55 74 83 81 88 88 90 64 59 65 62 66 67 76 77 69 70 76 73 74 68 67 66 65 62 62 61 54 49 52 52 48 47 45
26 24 22 19 26 31 35 39 42 44 63 80 87 90 79 70 63 57 58 60 63 67 64 68 69 70 71 75 77 72 68 71 70 68 63 60 61 55 55 55 49 49 48
22 22 20 21 20 26 30 34 39 48 57 73 80 72 66 64 58 49 49 47 62 63 60 71 72 74 77 78 83 81 75 72 73 74 67 59 66 64 58 58 57 54 54
24 23 24 22 24 26 28 37 46 53 58 69 63 65 63 51 61 58 57 58 61 63 61 75 79 81 80 83 86 89 88 82 80 80 75 69 68 64 62 61 62 59 58
27 26 26 27 31 35 36 48 55 65 70 75 77 72 66 61 63 70 71 62 75 76 78 78 71 81 82 87 89 90 90 90 85 81 82 76 74 71 67 64 66 64 61

GFSMA_250_spd_129.txt.gz
Wind_Speed
33 38 34 32 36 40 40 32 37 37 39 35 37 38 41 36 44 35 32 28 29 31 29 29 29 32 33 36 35 33 31 32 32 32 32 31 32 33 30 25 25 25 23
42 43 40 34 46 47 47 42 46 49 42 41 42 45 44 43 37 39 32 30 29 31 31 32 32 35 32 33 33 34 32 33 32 34 37 37 36 34 32 31 26 25 27
49 46 45 43 42 52 46 55 51 46 40 44 49 51 49 49 39 37 32 26 27 34 34 36 36 32 35 38 37 40 38 37 38 35 35 36 36 33 34 33 29 27 27
49 44 50 41 41 39 43 50 51 51 49 47 49 49 47 51 40 31 33 30 26 29 33 35 37 35 34 35 40 40 41 38 38 37 36 35 39 39 37 38 36 31 29
49 47 41 47 45 45 47 50 54 54 42 51 55 48 49 47 36 32 38 34 29 27 31 35 36 34 33 33 36 38 42 43 41 39 38 40 41 42 42 41 42 35 33
61 59 49 66 51 55 56 50 47 56 52 60 51 48 42 35 33 34 40 36 27 25 28 33 37 37 37 36 35 37 39 40 38 38 40 42 44 46 49 47 45 45 38
69 70 64 57 49 50 48 51 62 52 55 57 51 51 41 39 37 42 45 44 36 24 26 31 37 36 39 41 38 37 35 38 37 36 42 45 48 49 54 55 53 47 41
76 72 73 64 62 56 63 55 58 53 50 48 52 55 52 41 47 49 51 46 41 29 34 30 35 37 40 41 41 38 36 42 38 40 44 46 46 50 50 47 45 53 48
84 78 79 74 79 63 66 55 48 58 47 59 57 61 53 46 47 44 51 40 39 37 35 40 44 34 36 42 42 40 37 39 42 40 44 43 46 44 35 29 31 38 38
94 84 79 84 83 82 76 68 45 60 55 64 66 65 58 59 52 45 45 46 41 40 40 43 48 44 34 42 41 42 39 39 40 40 38 40 44 26 26 22 29 35 33
97 91 85 87 87 87 84 72 66 59 51 59 58 64 55 54 51 47 42 44 39 44 41 43 49 47 37 39 41 38 38 38 38 38 35 35 34 22 23 23 28 31 28
96 97 95 90 90 88 89 83 84 71 67 54 60 66 63 60 52 45 43 42 46 50 46 49 52 46 46 36 39 40 39 41 41 39 35 33 30 18 27 29 31 34 30
92 95 97 93 91 92 94 93 97 89 86 75 73 81 78 64 53 47 42 52 53 54 56 55 52 49 56 36 34 42 41 42 41 39 37 33 26 24 21 35 36 36 38
85 89 93 95 94 93 95 97 99 98 95 90 85 80 72 66 53 51 47 58 59 59 57 56 56 57 53 45 43 38 44 45 44 41 39 35 30 28 24 29 37 40 40
77 81 86 92 96 95 98 97 96 97 99 96 90 85 84 79 73 57 61 66 60 56 65 59 65 58 55 47 45 38 42 51 48 45 44 37 34 32 33 32 39 37 45
67 75 77 84 93 96 99 100 99 100 103 102 100 93 85 86 78 73 64 59 54 59 58 71 68 70 61 52 50 49 42 50 52 48 46 42 37 34 40 40 41 41 44
55 66 71 76 85 94 100 100 101 102 105 106 106 96 89 93 87 79 75 70 67 73 69 69 77 71 64 61 56 54 47 48 57 53 50 43 44 40 38 45 44 39 37
46 54 64 70 76 85 92 94 97 100 105 108 106 102 89 95 88 88 82 80 79 69 78 72 75 73 68 64 62 64 51 51 52 59 56 55 48 47 45 40 38 39 40
37 44 53 63 71 77 81 85 91 95 99 104 105 103 94 97 96 95 85 79 77 78 68 67 73 77 78 77 73 67 65 55 55 58 62 61 58 56 55 52 48 47 47
31 37 43 49 58 66 73 78 82 86 90 93 96 99 96 101 99 95 96 96 85 86 76 76 73 78 78 72 68 65 69 71 65 60 62 64 61 59 61 62 57 56 55
21 26 28 35 44 53 60 63 67 74 80 83 88 93 95 99 97 98 95 93 89 86 84 82 77 65 64 73 66 68 69 73 69 62 64 68 63 61 59 62 58 58 56
13 17 20 20 27 34 40 47 53 55 62 69 75 81 86 91 99 92 101 89 88 90 95 79 85 70 74 71 66 71 75 76 74 68 65 69 68 68 64 62 65 63 62
15 20 26 26 26 27 28 34 43 48 49 54 60 68 76 84 87 90 96 87 89 89 99 96 92 91 78 74 79 74 78 80 78 76 70 74 73 69 67 66 64 64 64
19 19 23 23 25 24 25 26 32 37 42 44 50 56 60 74 85 85 88 90 95 92 92 91 93 92 85 80 79 79 80 79 83 84 75 74 76 73 69 68 66 64 67
22 25 26 27 27 27 26 24 23 26 35 40 43 48 56 64 76 83 89 93 98 86 87 79 81 85 82 73 81 83 74 70 76 78 78 75 78 79 78 74 70 71 70
25 24 28 28 29 29 30 29 25 27 30 35 40 47 54 64 76 87 90 97 97 93 76 81 79 81 79 77 78 78 80 81 78 78 76 80 81 83 80 76 75 75 76

GFSMA_250_spd_132.txt.gz
Wind_Speed
55 57 51 46 41 38 31 22 23 25 28 33 35 31 32 32 34 38 36 29 32 26 23 23 30 29 26 31 28 25 26 29 28 27 27 27 27 29 30 31 30 26 26
49 51 51 52 47 41 42 36 33 21 27 28 35 33 36 34 34 36 35 28 28 28 26 22 30 33 29 32 29 30 29 28 29 28 29 30 30 31 31 31 32 29 28
47 51 48 42 45 45 41 37 43 38 29 26 33 39 38 39 37 35 35 26 26 27 27 28 28 34 35 34 32 36 35 30 31 31 34 34 32 31 29 29 30 31 30
53 53 54 51 42 42 38 38 40 43 36 30 38 34 36 42 40 30 25 19 20 25 30 22 20 20 32 40 39 36 34 35 34 33 36 35 37 33 30 31 31 33 37
58 55 60 61 48 39 53 57 61 49 53 40 30 43 39 46 39 29 25 24 22 24 24 25 18 23 24 28 37 37 36 34 33 36 34 36 38 39 37 36 36 37 37
80 70 60 69 64 54 59 62 63 57 53 45 35 38 43 46 48 49 41 35 29 31 24 24 19 22 29 25 25 35 39 37 34 37 34 32 37 38 37 38 41 44 46
92 89 75 66 75 67 70 53 55 67 63 59 52 40 37 49 52 48 42 40 35 26 23 20 17 17 28 26 32 29 33 37 34 36 35 35 36 35 38 40 45 49 51
107 99 95 78 73 82 77 75 67 62 59 55 51 50 48 49 43 49 53 45 38 31 19 19 21 22 29 28 34 41 32 31 33 33 36 39 38 37 40 43 47 50 51
110 110 104 87 79 86 87 79 67 64 62 53 47 53 50 48 53 47 54 49 46 36 30 26 22 21 22 39 39 38 36 31 32 33 34 34 37 39 40 41 47 43 38
99 99 96 85 81 92 90 85 73 69 64 52 41 48 56 52 51 50 55 52 49 46 41 39 29 27 20 25 39 38 35 37 29 30 29 31 37 36 36 39 40 33 19
85 89 87 84 80 94 100 90 82 76 73 59 56 59 62 57 44 52 63 60 53 48 40 41 41 33 31 27 38 43 38 34 27 31 33 32 32 33 34 37 30 24 18
81 75 82 82 80 90 100 101 92 86 78 67 66 61 56 53 50 61 70 68 50 48 45 40 38 38 36 34 32 40 39 37 35 35 34 35 34 33 32 33 24 14 16
73 72 75 78 76 84 102 101 102 98 91 79 71 60 62 67 67 66 62 68 56 54 50 45 52 50 42 39 43 38 42 41 35 32 34 34 35 31 33 31 24 22 23
60 65 69 74 74 78 99 102 105 105 99 92 86 78 60 64 70 76 51 62 67 60 50 64 70 64 66 56 45 44 43 39 39 35 32 32 38 39 33 33 30 27 32
53 56 61 70 70 76 86 103 107 110 106 103 98 89 80 67 38 70 61 79 71 65 61 48 60 51 54 59 49 44 46 47 43 40 36 35 36 40 38 35 33 31 26
46 47 54 61 67 71 79 97 106 112 110 104 104 103 94 93 71 77 75 75 77 76 67 63 58 56 59 59 51 51 48 50 42 42 43 38 38 41 40 38 38 36 37
37 37 44 53 60 67 74 84 103 110 112 111 111 106 104 104 103 90 85 80 83 82 71 73 65 63 60 62 67 61 60 54 47 49 47 44 39 39 43 39 41 41 38
30 32 37 45 53 60 66 75 92 106 110 112 113 111 108 112 112 109 103 95 93 89 83 78 76 65 60 60 66 70 66 64 60 55 54 50 46 43 43 46 44 45 45
24 27 31 37 46 51 61 70 80 94 106 109 112 117 113 114 113 114 113 109 102 98 95 89 74 72 64 69 69 66 68 69 67 66 56 56 58 53 45 47 52 52 50
16 22 24 28 34 43 53 63 70 80 91 101 107 112 117 117 115 116 114 113 112 104 103 100 90 85 82 75 83 80 75 71 67 64 65 63 64 56 52 55 51 56 56
11 10 12 16 22 30 42 55 64 71 79 87 94 102 108 112 117 119 117 114 112 110 109 106 98 97 93 89 83 80 80 77 75 70 72 75 67 67 57 56 55 56 60
6 7 11 11 11 19 26 38 51 61 72 78 81 87 97 105 113 113 114 115 116 113 112 111 104 101 99 94 90 85 83 81 82 75 67 72 75 64 64 64 62 58 59
8 9 11 15 15 16 22 27 31 42 53 63 69 74 82 90 98 104 108 110 112 112 112 112 110 105 104 100 95 92 86 89 91 88 78 79 78 68 68 67 65 65 61
12 16 16 18 19 19 20 23 22 26 32 44 51 56 62 71 82 90 96 100 102 104 105 105 109 109 106 102 98 97 91 90 86 85 78 83 78 74 74 74 75 74 70
21 23 22 22 25 27 27 30 31 30 26 31 40 47 51 57 65 73 80 87 93 96 98 101 103 104 104 102 94 94 80 95 91 87 81 75 72 76 79 81 81 74 68
26 27 28 29 29 27 29 31 33 35 34 31 30 36 44 48 56 63 73 79 85 88 90 96 99 106 109 107 93 95 98 102 97 96 92 93 92 85 86 86 88 78 73